MENDUMS POND: From 09/19/2019 00:00 to 11/20/2019 00:00

Date LAKE ELEVATION [FT] PRECIPITATION INCREMENT [IN] WATER TEMPERATURE [F] PRECIPITATION TOTAL [IN] AIR TEMPERATURE [F] RESERVOIR RELEASE [CFS]
11/18/2019 12:00 -- -- -- -- -- 56.0
11/18/2019 11:00 220.79 0.00 42.3 -- 35.6 56.0
11/18/2019 10:00 220.82 0.00 42.3 -- 34.2 23.0
11/18/2019 09:00 220.83 0.00 42.3 -- 34.0 23.0
11/18/2019 08:00 220.83 0.00 42.3 -- 33.5 23.0
11/18/2019 07:00 220.84 0.00 42.4 -- 33.3 23.0
11/18/2019 06:00 220.86 0.00 42.4 -- 33.1 23.5
11/18/2019 05:00 220.86 0.00 42.5 -- 32.9 23.5
11/18/2019 04:00 220.87 0.00 42.5 -- 32.8 24.0
11/18/2019 03:00 220.86 0.00 42.6 -- 32.7 24.0
11/18/2019 02:00 220.88 0.00 42.6 -- 32.7 24.0
11/18/2019 01:00 220.88 0.00 42.6 -- 32.8 24.0
11/18/2019 00:00 220.89 0.00 42.7 -- 32.4 24.0
11/17/2019 23:00 220.89 0.00 42.7 -- 32.4 24.0
11/17/2019 22:00 220.91 0.00 42.8 -- 32.0 24.8
11/17/2019 21:00 220.92 0.00 42.8 -- 31.8 25.0
11/17/2019 20:00 220.92 0.00 42.8 -- 32.5 25.0
11/17/2019 19:00 220.94 0.00 42.9 -- 32.4 25.0
11/17/2019 18:00 220.94 0.00 42.9 -- 33.2 25.0
11/17/2019 17:00 220.95 0.00 42.9 -- 34.0 25.3
11/17/2019 16:00 220.96 0.00 42.9 -- 34.4 25.8
11/17/2019 15:00 220.97 0.00 42.9 -- 34.9 26.0
11/17/2019 14:00 220.97 0.00 42.8 -- 34.5 26.0
11/17/2019 13:00 220.98 0.00 42.7 -- 33.4 26.0
11/17/2019 12:00 220.99 0.00 42.5 -- 31.7 26.0
11/17/2019 11:00 221.00 0.00 42.5 -- 28.6 26.0
11/17/2019 10:00 221.01 0.00 42.4 -- 24.9 26.8
11/17/2019 09:00 221.01 0.00 42.5 -- 22.0 26.8
11/17/2019 08:00 221.02 0.00 42.6 -- 13.9 27.0
11/17/2019 07:00 221.04 0.00 42.6 -- 13.2 27.0
11/17/2019 06:00 221.03 0.00 42.7 -- 13.4 27.0
11/17/2019 05:00 221.05 0.00 42.7 -- 13.9 27.0
11/17/2019 04:00 221.06 0.00 42.8 -- 14.3 27.8
11/17/2019 03:00 221.06 0.00 42.8 -- 14.4 27.8
11/17/2019 02:00 221.07 0.00 42.9 -- 15.4 28.0
11/17/2019 01:00 221.10 0.00 43.0 -- 16.6 28.0
11/17/2019 00:00 221.09 0.00 42.9 0.00 17.1 28.5
11/16/2019 23:00 221.08 0.00 43.1 -- 18.4 28.5
11/16/2019 22:00 221.12 0.00 43.2 -- 20.4 28.8
11/16/2019 21:00 221.13 0.00 43.3 -- 21.9 29.0
11/16/2019 20:00 221.13 0.00 43.3 -- 23.4 29.0
11/16/2019 19:00 221.13 0.00 43.3 -- 26.1 29.3
11/16/2019 18:00 221.16 0.00 43.3 -- 27.8 29.3
11/16/2019 17:00 221.17 0.00 43.6 -- 29.8 30.0
11/16/2019 16:00 221.17 0.00 43.7 -- 32.0 30.0
11/16/2019 15:00 221.20 0.00 43.7 -- 33.1 30.0
11/16/2019 14:00 221.19 0.00 43.6 -- 35.0 30.0
11/16/2019 13:00 221.20 0.00 43.4 -- 32.6 30.5
11/16/2019 12:00 221.21 0.00 43.3 -- 30.6 31.0
11/16/2019 11:00 221.22 0.00 43.3 -- 27.2 31.0
11/16/2019 10:00 221.23 0.00 43.3 -- 24.0 31.0
11/16/2019 09:00 221.24 0.00 43.3 -- 22.5 31.0
11/16/2019 08:00 221.25 0.00 43.4 -- 21.5 31.5
11/16/2019 07:00 221.26 0.00 43.5 -- 22.5 32.0
11/16/2019 06:00 221.27 0.00 43.6 -- 23.7 32.0
11/16/2019 05:00 221.30 0.00 43.7 -- 25.0 32.3
11/16/2019 04:00 221.33 0.00 43.9 -- 26.9 32.5
11/16/2019 03:00 221.30 0.00 44.1 -- 29.7 32.5
11/16/2019 02:00 221.30 0.00 44.2 -- 31.8 33.0
11/16/2019 01:00 221.33 0.00 44.4 -- 33.4 33.0
11/16/2019 00:00 221.34 0.00 44.5 0.00 35.5 33.5
11/15/2019 23:00 221.33 0.00 44.5 -- 38.7 33.8
11/15/2019 22:00 221.35 0.00 44.6 -- 39.8 33.8
11/15/2019 21:00 221.37 0.00 44.6 -- 40.9 34.0
11/15/2019 20:00 221.37 0.00 44.7 -- 41.9 34.3
11/15/2019 19:00 221.39 0.00 44.7 -- 42.6 34.5
11/15/2019 18:00 221.42 0.00 44.7 -- 42.3 35.0
11/15/2019 17:00 221.41 0.00 44.7 -- 45.6 35.0
11/15/2019 16:00 221.42 0.00 44.7 -- 47.6 35.3
11/15/2019 15:00 221.45 0.00 44.6 -- 48.0 35.8
11/15/2019 14:00 221.44 0.00 44.6 -- 47.4 36.0
11/15/2019 13:00 221.47 0.00 44.5 -- 44.9 36.0
11/15/2019 12:00 221.48 0.00 44.4 -- 42.2 36.0
11/15/2019 11:00 221.48 0.00 44.3 -- 40.6 36.5
11/15/2019 10:00 221.50 0.00 44.4 -- 34.6 37.0
11/15/2019 09:00 221.51 0.00 44.5 -- 26.4 37.0
11/15/2019 08:00 221.52 0.00 44.5 -- 23.7 37.0
11/15/2019 07:00 221.53 0.00 44.6 -- 23.6 37.8
11/15/2019 06:00 221.55 0.00 44.7 -- 24.5 38.0
11/15/2019 05:00 221.56 0.00 44.8 -- 25.4 38.0
11/15/2019 04:00 221.58 0.00 44.8 -- 26.8 38.0
11/15/2019 03:00 221.58 0.00 44.8 -- 29.3 38.8
11/15/2019 02:00 221.60 0.00 44.8 -- 29.1 39.0
11/15/2019 01:00 221.61 0.00 44.8 -- 28.9 39.0
11/15/2019 00:00 221.62 0.00 44.8 0.00 28.7 39.5
11/14/2019 23:00 221.63 0.00 44.8 -- 28.3 40.0
11/14/2019 22:00 221.66 0.00 44.8 -- 28.1 40.0
11/14/2019 21:00 221.66 0.00 44.8 -- 28.1 40.5
11/14/2019 20:00 221.67 0.00 44.8 -- 28.3 41.0
11/14/2019 19:00 221.69 0.00 44.8 -- 28.4 41.0
11/14/2019 18:00 221.70 0.00 44.9 -- 29.4 41.3
11/14/2019 17:00 221.71 0.00 44.9 -- 30.5 42.0
11/14/2019 16:00 221.73 0.00 44.9 -- 31.1 42.0
11/14/2019 15:00 221.74 0.00 44.9 -- 30.1 42.3
11/14/2019 14:00 221.75 0.00 44.9 -- 29.3 42.8
11/14/2019 13:00 221.76 0.00 44.9 -- 28.4 43.0
11/14/2019 12:00 221.78 0.00 44.9 -- 27.1 43.0
11/14/2019 11:00 221.80 0.00 44.8 -- 25.8 44.0
11/14/2019 10:00 221.81 0.00 44.8 -- 23.8 44.0
11/14/2019 09:00 221.83 0.00 44.8 -- 20.6 44.0
11/14/2019 08:00 221.84 0.00 44.8 -- 14.8 44.5
11/14/2019 07:00 221.85 0.00 44.8 -- 14.9 45.0
11/14/2019 06:00 221.86 0.00 44.9 -- 12.6 45.0
11/14/2019 05:00 221.88 0.00 45.0 -- 11.6 46.0
11/14/2019 04:00 221.90 0.00 45.0 -- 12.3 46.0
11/14/2019 03:00 221.91 0.00 45.1 -- 13.3 46.0
11/14/2019 02:00 221.93 0.00 45.2 -- 12.8 47.0
11/14/2019 01:00 221.95 0.00 45.2 -- 14.0 47.0
11/14/2019 00:00 221.96 0.00 45.3 0.00 16.3 47.3
11/13/2019 23:00 221.97 0.00 45.3 -- 17.9 48.0
11/13/2019 22:00 221.99 0.00 45.3 -- 20.4 48.0
11/13/2019 21:00 222.01 0.00 45.3 -- 20.8 48.0
11/13/2019 20:00 222.02 0.00 45.4 -- 21.5 49.0
11/13/2019 19:00 222.03 0.00 45.6 -- 22.0 49.3
11/13/2019 18:00 222.07 0.00 45.6 -- 22.7 50.0
11/13/2019 17:00 222.06 0.00 45.7 -- 23.8 50.8
11/13/2019 16:00 222.08 0.00 45.8 -- 24.8 50.5
11/13/2019 15:00 222.10 0.00 45.8 -- 24.7 51.0
11/13/2019 14:00 222.15 0.00 45.6 -- 25.4 51.3
11/13/2019 13:00 222.14 0.00 45.5 -- 24.0 52.0
11/13/2019 12:00 222.13 0.00 45.4 -- 22.9 52.0
11/13/2019 11:00 222.14 0.00 45.4 -- 20.1 53.0
11/13/2019 10:00 222.22 0.00 45.5 -- 17.2 53.5
11/13/2019 09:00 222.19 0.00 45.6 -- 14.8 53.8
11/13/2019 08:00 222.21 0.00 45.7 -- 14.1 54.0
11/13/2019 07:00 222.23 0.00 45.8 -- 14.2 54.5
11/13/2019 06:00 222.25 0.00 46.0 -- 14.9 54.8
11/13/2019 05:00 222.28 0.00 46.2 -- 15.2 55.3
11/13/2019 04:00 222.29 0.00 46.2 -- 15.9 55.5
11/13/2019 03:00 222.29 0.00 46.4 -- 16.6 56.3
11/13/2019 02:00 222.31 0.00 46.5 -- 17.5 56.5
11/13/2019 01:00 222.37 0.00 46.6 -- 18.4 57.3
11/13/2019 00:00 222.38 0.00 46.8 0.00 19.5 58.3
11/12/2019 23:00 222.36 0.00 47.0 -- 21.0 58.0
11/12/2019 22:00 222.40 0.00 47.2 -- 22.8 58.5
11/12/2019 21:00 222.43 0.00 47.3 -- 25.0 59.0
11/12/2019 20:00 222.43 0.00 47.3 -- 25.8 59.5
11/12/2019 19:00 222.46 0.00 47.4 -- 26.6 60.5
11/12/2019 18:00 222.45 0.00 47.5 -- 27.3 60.8
11/12/2019 17:00 222.50 0.00 47.6 -- 27.8 61.0
11/12/2019 16:00 222.50 0.00 47.7 -- 28.1 61.8
11/12/2019 15:00 222.55 0.00 47.7 -- 30.1 62.0
11/12/2019 14:00 222.55 0.01 47.8 -- 32.7 62.5
11/12/2019 13:00 222.58 0.00 47.7 -- 35.7 63.0
11/12/2019 12:00 222.60 0.00 47.7 -- 34.9 37.0
11/12/2019 11:00 222.61 0.02 47.7 -- 33.4 28.5
11/12/2019 10:00 222.63 0.00 47.7 -- 31.6 28.5
11/12/2019 09:00 222.62 0.00 47.7 -- 30.9 29.0
11/12/2019 08:00 222.60 0.00 47.7 -- 30.6 28.3
11/12/2019 07:00 222.63 0.00 47.7 -- 30.9 29.0
11/12/2019 06:00 222.64 0.00 47.7 -- 31.1 29.5
11/12/2019 05:00 222.67 0.00 47.8 -- 30.8 29.5
11/12/2019 04:00 222.68 0.00 47.8 -- 31.4 30.0
11/12/2019 03:00 222.67 0.00 47.9 -- 31.9 30.0
11/12/2019 02:00 222.69 0.00 48.0 -- 32.1 30.0
11/12/2019 01:00 222.71 0.00 48.0 -- 32.5 30.3
11/12/2019 00:00 222.70 0.00 48.0 0.03 32.2 30.8
11/11/2019 23:00 222.71 0.00 48.1 -- 32.3 30.5
11/11/2019 22:00 222.73 0.00 48.2 -- 33.5 31.0
11/11/2019 21:00 222.73 0.00 48.2 -- 34.6 31.0
11/11/2019 20:00 222.74 0.00 48.3 -- 36.0 31.3
11/11/2019 19:00 222.75 0.00 48.4 -- 38.0 31.3
11/11/2019 18:00 222.76 0.00 48.4 -- 39.4 32.0
11/11/2019 17:00 222.77 0.00 48.5 -- 40.0 32.0
11/11/2019 16:00 222.78 0.00 48.5 -- 40.5 32.0
11/11/2019 15:00 222.79 0.00 48.5 -- 41.4 32.0
11/11/2019 14:00 222.80 0.00 48.5 -- 42.4 33.0
11/11/2019 13:00 222.80 0.00 48.5 -- 43.3 33.0
11/11/2019 12:00 222.82 0.00 48.5 -- 42.8 33.0
11/11/2019 11:00 222.83 0.00 48.5 -- 43.0 33.0
11/11/2019 10:00 222.84 0.00 48.5 -- 41.5 33.0
11/11/2019 09:00 222.85 0.00 48.5 -- 38.4 33.8
11/11/2019 08:00 222.85 0.00 48.6 -- 37.6 34.0
11/11/2019 07:00 222.87 0.00 48.6 -- 37.6 34.0
11/11/2019 06:00 222.88 0.00 48.6 -- 37.0 34.0
11/11/2019 05:00 222.89 0.00 48.6 -- 37.3 34.3
11/11/2019 04:00 222.90 0.00 48.6 -- 37.5 35.0
11/11/2019 03:00 222.91 0.00 48.6 -- 35.6 35.0
11/11/2019 02:00 222.92 0.00 48.6 -- 35.1 35.0
11/11/2019 01:00 222.93 0.00 48.7 -- 35.2 35.0
11/11/2019 00:00 222.94 0.00 48.6 0.00 34.9 35.8
11/10/2019 23:00 222.96 0.00 48.7 -- 35.4 36.0
11/10/2019 22:00 222.96 0.00 48.7 -- 35.8 36.0
11/10/2019 21:00 222.98 0.00 48.8 -- 33.9 36.0
11/10/2019 20:00 222.98 0.00 48.8 -- 36.7 36.8
11/10/2019 19:00 223.00 0.00 48.8 -- 37.5 37.0
11/10/2019 18:00 223.01 0.00 48.8 -- 37.9 37.0
11/10/2019 17:00 223.02 0.00 48.8 -- 44.6 37.3
11/10/2019 16:00 223.03 0.00 48.8 -- 48.3 37.8
11/10/2019 15:00 223.05 0.00 48.8 -- 46.5 38.0
11/10/2019 14:00 223.05 0.00 48.7 -- 44.4 38.0
11/10/2019 13:00 223.06 0.00 48.7 -- 43.4 38.0
11/10/2019 12:00 223.08 0.00 48.7 -- 41.0 39.0
11/10/2019 11:00 223.09 0.00 48.7 -- 37.8 39.0
11/10/2019 10:00 223.11 0.00 48.7 -- 34.7 39.0
11/10/2019 09:00 223.11 0.00 48.8 -- 32.0 39.3
11/10/2019 08:00 223.13 0.00 48.8 -- 30.5 40.0
11/10/2019 07:00 223.14 0.00 48.8 -- 29.8 40.0
11/10/2019 06:00 223.15 0.00 48.9 -- 29.5 40.0
11/10/2019 05:00 223.17 0.00 49.0 -- 29.3 40.8
11/10/2019 04:00 223.18 0.00 49.0 -- 28.5 41.0
11/10/2019 03:00 223.19 0.00 49.1 -- 28.5 41.0
11/10/2019 02:00 223.20 0.00 49.2 -- 27.5 41.0
11/10/2019 01:00 223.21 0.00 49.3 -- 27.4 42.0
11/10/2019 00:00 223.23 0.00 49.3 0.00 28.9 42.0
11/09/2019 23:00 223.24 0.00 49.4 -- 27.9 42.0
11/09/2019 22:00 223.25 0.00 49.4 -- 25.6 42.5
11/09/2019 21:00 223.27 0.00 49.5 -- 25.5 43.0
11/09/2019 20:00 223.28 0.00 49.5 -- 27.3 43.0
11/09/2019 19:00 223.29 0.00 49.5 -- 27.8 43.3
11/09/2019 18:00 223.30 0.00 49.5 -- 29.5 44.0
11/09/2019 17:00 223.34 0.00 49.5 -- 35.5 44.0
11/09/2019 16:00 223.33 0.00 49.5 -- 37.9 44.5
11/09/2019 15:00 223.35 0.00 49.5 -- 38.4 45.0
11/09/2019 14:00 223.36 0.00 49.5 -- 39.2 45.0
11/09/2019 13:00 223.38 0.00 49.4 -- 38.4 45.5
11/09/2019 12:00 223.39 0.00 49.4 -- 34.8 46.0
11/09/2019 11:00 223.40 0.00 49.4 -- 36.2 46.0
11/09/2019 10:00 223.42 0.00 49.3 -- 28.7 46.3
11/09/2019 09:00 223.43 0.00 49.4 -- 22.4 47.0
11/09/2019 08:00 223.44 0.00 49.5 -- 19.2 47.0
11/09/2019 07:00 223.46 0.00 49.5 -- 19.9 47.8
11/09/2019 06:00 223.47 0.00 49.5 -- 20.6 48.0
11/09/2019 05:00 223.50 0.00 49.8 -- 21.2 48.0
11/09/2019 04:00 223.51 0.00 49.8 -- 23.2 48.5
11/09/2019 03:00 223.52 0.00 49.9 -- 23.9 49.0
11/09/2019 02:00 223.53 0.00 49.9 -- 23.8 49.0
11/09/2019 01:00 223.55 0.00 50.0 -- 25.2 50.0
11/09/2019 00:00 223.57 0.00 50.1 0.00 25.1 50.0
11/08/2019 23:00 223.59 0.00 50.1 -- 25.9 50.8
11/08/2019 22:00 223.60 0.00 50.3 -- 26.6 51.0
11/08/2019 21:00 223.60 0.00 50.3 -- 27.0 51.3
11/08/2019 20:00 223.63 0.00 50.4 -- 27.9 51.8
11/08/2019 19:00 223.65 0.00 50.5 -- 28.3 52.0
11/08/2019 18:00 223.69 0.00 50.6 -- 29.1 52.3
11/08/2019 17:00 223.68 0.00 50.7 -- 29.3 53.0
11/08/2019 16:00 223.72 0.00 50.8 -- 32.0 53.8
11/08/2019 15:00 223.70 0.00 50.9 -- 32.6 53.8
11/08/2019 14:00 223.74 0.00 51.0 -- 32.0 54.3
11/08/2019 13:00 223.74 0.00 51.0 -- 31.7 54.8
11/08/2019 12:00 223.78 0.00 51.0 -- 30.3 55.3
11/08/2019 11:00 223.79 0.00 50.9 -- 33.3 55.5
11/08/2019 10:00 223.81 0.00 51.0 -- 30.8 56.0
11/08/2019 09:00 223.82 0.00 51.1 -- 28.6 56.5
11/08/2019 08:00 223.84 0.00 51.2 -- 27.8 57.0
11/08/2019 07:00 223.85 0.00 51.2 -- 29.0 57.0
11/08/2019 06:00 223.88 0.00 51.3 -- 29.7 58.0
11/08/2019 05:00 223.89 0.00 51.4 -- 30.8 58.0
11/08/2019 04:00 223.90 0.00 51.5 -- 32.3 58.8
11/08/2019 03:00 223.92 0.00 51.5 -- 33.4 59.0
11/08/2019 02:00 223.95 0.00 51.6 -- 34.5 60.0
11/08/2019 01:00 223.96 0.00 51.7 -- 35.4 60.0
11/08/2019 00:00 223.98 0.01 51.7 0.00 36.7 60.5
11/07/2019 23:00 224.00 0.01 51.8 -- 37.7 61.0
11/07/2019 22:00 224.01 0.02 51.8 -- 39.3 61.5
11/07/2019 21:00 224.03 0.04 51.8 -- 40.3 62.0
11/07/2019 20:00 224.05 0.05 51.9 -- 40.9 62.3
11/07/2019 19:00 224.07 0.09 51.9 -- 41.7 63.0
11/07/2019 18:00 224.07 0.08 51.9 -- 41.8 63.0
11/07/2019 17:00 224.08 0.02 51.9 -- 42.4 63.0
11/07/2019 16:00 224.09 0.02 51.9 -- 43.9 63.8
11/07/2019 15:00 224.12 0.00 51.8 -- 47.1 64.0
11/07/2019 14:00 224.13 0.00 51.8 -- 45.4 64.8
11/07/2019 13:00 224.16 0.00 51.8 -- 42.4 65.0
11/07/2019 12:00 224.17 0.00 51.8 -- 41.1 65.8
11/07/2019 11:00 224.20 0.00 51.8 -- 39.3 43.5
11/07/2019 10:00 224.20 0.00 51.8 -- 37.9 21.0
11/07/2019 09:00 224.21 0.00 51.9 -- 33.9 21.0
11/07/2019 08:00 224.22 0.00 51.9 -- 30.7 21.0
11/07/2019 07:00 224.22 0.00 52.0 -- 31.5 21.0
11/07/2019 06:00 224.23 0.00 52.0 -- 31.7 21.0
11/07/2019 05:00 224.24 0.00 52.1 -- 30.5 21.0
11/07/2019 04:00 224.24 0.00 52.1 -- 29.2 21.3
11/07/2019 03:00 224.25 0.00 52.2 -- 28.6 21.5
11/07/2019 02:00 224.26 0.00 52.3 -- 28.9 22.0
11/07/2019 01:00 224.26 0.00 52.4 -- 28.5 22.0
11/07/2019 00:00 224.27 0.00 52.4 0.34 28.8 22.0
11/06/2019 23:00 224.27 0.00 52.5 -- 29.8 22.0
11/06/2019 22:00 224.28 0.00 52.5 -- 30.1 22.0
11/06/2019 21:00 224.29 0.00 52.5 -- 31.8 22.0
11/06/2019 20:00 224.29 0.00 52.4 -- 33.5 22.0
11/06/2019 19:00 224.30 0.00 52.4 -- 35.8 22.5
11/06/2019 18:00 224.31 0.00 52.5 -- 39.6 22.5
11/06/2019 17:00 224.31 0.00 52.4 -- 47.5 23.0
11/06/2019 16:00 224.33 0.00 52.4 -- 49.5 23.0
11/06/2019 15:00 224.32 0.00 52.5 -- 50.1 23.0
11/06/2019 14:00 224.34 0.00 52.4 -- 50.4 23.0
11/06/2019 13:00 224.34 0.00 52.4 -- 50.5 23.5
11/06/2019 12:00 224.36 0.00 52.4 -- 47.7 23.8
11/06/2019 11:00 224.31 0.00 52.4 -- 46.0 23.0
11/06/2019 10:00 224.35 0.00 52.4 -- 44.0 23.5
11/06/2019 09:00 224.36 0.00 52.4 -- 38.0 24.0
11/06/2019 08:00 224.37 0.00 52.5 -- 31.9 24.0
11/06/2019 07:00 224.38 0.00 52.6 -- 30.6 24.0
11/06/2019 06:00 224.38 0.00 52.6 -- 32.7 24.0
11/06/2019 05:00 224.39 0.00 52.7 -- 34.3 24.0
11/06/2019 04:00 224.40 0.00 52.8 -- 36.8 24.0
11/06/2019 03:00 224.40 0.00 52.8 -- 41.1 24.3
11/06/2019 02:00 224.41 0.00 52.9 -- 44.7 25.0
11/06/2019 01:00 224.41 0.00 52.9 -- 45.4 25.0
11/06/2019 00:00 224.42 0.00 52.9 0.00 45.5 25.0
11/05/2019 23:00 224.43 0.00 52.9 -- 46.0 25.0
11/05/2019 22:00 224.44 0.00 52.9 -- 47.5 25.0
11/05/2019 21:00 224.44 0.00 52.9 -- 49.4 25.0
11/05/2019 20:00 224.45 0.01 52.9 -- 48.4 25.3
11/05/2019 19:00 224.45 0.00 52.9 -- 48.6 25.3
11/05/2019 18:00 224.46 0.00 52.9 -- 49.6 26.0
11/05/2019 17:00 224.47 0.00 52.9 -- 50.2 26.0
11/05/2019 16:00 224.49 0.03 52.9 -- 49.9 26.0
11/05/2019 15:00 224.50 0.03 52.9 -- 50.3 26.0
11/05/2019 14:00 224.48 0.00 52.9 -- 51.8 26.0
11/05/2019 13:00 224.50 0.00 52.9 -- 52.1 26.0
11/05/2019 12:00 224.50 0.00 52.9 -- 51.2 26.3
11/05/2019 11:00 224.51 0.00 52.9 -- 48.0 27.0
11/05/2019 10:00 224.51 0.00 52.9 -- 44.2 27.0
11/05/2019 09:00 224.53 0.00 52.9 -- 39.8 27.5
11/05/2019 08:00 224.53 0.00 52.9 -- 37.3 27.3
11/05/2019 07:00 224.54 0.00 53.0 -- 36.4 28.5
11/05/2019 06:00 224.55 0.00 53.0 -- 36.5 28.5
11/05/2019 05:00 224.56 0.00 53.1 -- 36.5 29.0
11/05/2019 04:00 224.56 0.00 53.1 -- 35.7 29.5
11/05/2019 03:00 224.57 0.00 53.1 -- 36.0 30.0
11/05/2019 02:00 224.57 0.00 53.2 -- 36.4 30.8
11/05/2019 01:00 224.59 0.00 53.2 -- 37.8 31.0
11/05/2019 00:00 224.59 0.00 53.3 0.07 39.4 31.8
11/04/2019 23:00 224.60 0.00 53.3 -- 39.8 32.0
11/04/2019 22:00 224.61 0.00 53.3 -- 40.2 32.5
11/04/2019 21:00 224.62 0.00 53.3 -- 40.9 33.5
11/04/2019 20:00 224.63 0.00 53.3 -- 40.6 34.0
11/04/2019 19:00 224.64 0.00 53.3 -- 40.8 35.0
11/04/2019 18:00 224.64 0.00 53.3 -- 42.1 35.8
11/04/2019 17:00 224.66 0.00 53.3 -- 47.8 37.0
11/04/2019 16:00 224.66 0.00 53.3 -- 50.2 37.5
11/04/2019 15:00 224.67 0.00 53.3 -- 51.0 37.8
11/04/2019 14:00 224.68 0.00 53.2 -- 49.8 31.8
11/04/2019 13:00 224.69 0.00 53.3 -- 49.5 10.3
11/04/2019 12:00 224.70 0.00 53.3 -- 48.1 10.0
11/04/2019 11:00 224.70 0.00 53.3 -- 47.8 10.3
11/04/2019 10:00 224.70 0.00 53.3 -- 41.4 10.0
11/04/2019 09:00 224.69 0.00 53.3 -- 32.4 10.3
11/04/2019 08:00 224.70 0.00 53.4 -- 30.9 11.0
11/04/2019 07:00 224.70 0.00 53.5 -- 30.6 11.0
11/04/2019 06:00 224.70 0.00 53.5 -- 30.4 11.0
11/04/2019 05:00 224.70 0.00 53.6 -- 30.0 11.0
11/04/2019 04:00 224.70 0.00 53.7 -- 29.9 11.0
11/04/2019 03:00 224.70 0.00 53.7 -- 31.5 10.8
11/04/2019 02:00 224.70 0.00 53.7 -- 31.0 11.0
11/04/2019 01:00 224.71 0.00 53.8 -- 30.0 11.0
11/04/2019 00:00 224.70 0.00 53.7 0.00 31.0 11.0
11/03/2019 23:00 224.71 0.00 53.7 -- 32.1 11.3
11/03/2019 22:00 224.71 0.00 53.7 -- 33.3 11.5
11/03/2019 21:00 224.71 0.00 53.7 -- 34.6 11.3
11/03/2019 20:00 224.71 0.00 53.7 -- 37.3 12.0
11/03/2019 19:00 224.71 0.00 53.7 -- 41.9 11.5
11/03/2019 18:00 224.71 0.00 53.7 -- 45.5 11.5
11/03/2019 17:00 224.72 0.00 53.7 -- 48.9 12.5
11/03/2019 16:00 224.73 0.00 53.7 -- 50.2 11.5
11/03/2019 15:00 224.70 0.00 53.7 -- 50.4 12.3
11/03/2019 14:00 224.72 0.00 53.6 -- 52.8 12.0
11/03/2019 13:00 224.72 0.00 53.6 -- 52.7 12.3
11/03/2019 12:00 224.72 0.00 53.6 -- 48.5 12.3
11/03/2019 11:00 224.72 0.00 53.6 -- 47.3 12.8
11/03/2019 10:00 224.73 0.00 53.6 -- 39.8 13.0
11/03/2019 09:00 224.72 0.00 53.7 -- 32.8 13.0
11/03/2019 08:00 224.73 0.00 53.7 -- 30.9 13.0
11/03/2019 07:00 224.73 0.00 53.8 -- 30.8 13.0
11/03/2019 06:00 224.73 0.00 53.9 -- 30.4 13.0
11/03/2019 05:00 224.73 0.00 53.9 -- 30.5 13.0
11/03/2019 04:00 224.73 0.00 53.8 -- 30.1 13.3
11/03/2019 03:00 224.73 0.00 53.7 -- 31.3 13.5
11/03/2019 02:00 224.74 0.00 53.7 -- 31.9 14.0
11/03/2019 01:00 224.74 0.00 53.7 -- 32.4 14.0
11/03/2019 00:00 224.74 0.00 53.8 0.00 32.1 14.0
11/02/2019 23:00 224.74 0.00 53.7 -- 33.6 14.0
11/02/2019 22:00 224.74 0.00 53.7 -- 35.9 14.8
11/02/2019 21:00 224.75 0.00 53.7 -- 39.9 14.5
11/02/2019 20:00 224.75 0.00 53.7 -- 42.5 14.5
11/02/2019 19:00 224.75 0.00 53.7 -- 43.6 15.0
11/02/2019 18:00 224.75 0.00 53.7 -- 45.2 15.0
11/02/2019 17:00 224.75 0.00 53.7 -- 46.9 15.5
11/02/2019 16:00 224.76 0.00 53.7 -- 47.2 15.5
11/02/2019 15:00 224.75 0.00 53.7 -- 47.5 15.3
11/02/2019 14:00 224.76 0.00 53.7 -- 46.4 15.5
11/02/2019 13:00 224.76 0.00 53.6 -- 45.5 16.0
11/02/2019 12:00 224.76 0.00 53.6 -- 44.3 15.5
11/02/2019 11:00 224.76 0.00 53.6 -- 40.2 16.0
11/02/2019 10:00 224.77 0.00 53.7 -- 33.2 16.0
11/02/2019 09:00 224.76 0.00 53.7 -- 29.2 15.8
11/02/2019 08:00 224.77 0.00 53.8 -- 29.1 16.8
11/02/2019 07:00 224.76 0.00 53.8 -- 29.5 16.0
11/02/2019 06:00 224.77 0.00 53.8 -- 30.6 16.8
11/02/2019 05:00 224.77 0.00 53.9 -- 32.8 17.0
11/02/2019 04:00 224.77 0.00 53.9 -- 36.6 16.8
11/02/2019 03:00 224.77 0.00 53.9 -- 37.3 17.0
11/02/2019 02:00 224.77 0.00 53.9 -- 37.9 17.5
11/02/2019 01:00 224.78 0.00 53.9 -- 38.5 17.8
11/02/2019 00:00 224.77 0.00 53.9 0.00 40.6 17.0
11/01/2019 23:00 224.78 0.00 54.0 -- 41.6 17.5
11/01/2019 22:00 224.78 0.00 54.1 -- 42.3 17.5
11/01/2019 21:00 224.79 0.00 54.1 -- 43.8 18.8
11/01/2019 20:00 224.79 0.00 54.0 -- 45.1 17.8
11/01/2019 19:00 224.79 0.00 54.0 -- 46.9 17.8
11/01/2019 18:00 224.83 0.00 53.9 -- 49.3 18.3
11/01/2019 17:00 224.77 0.00 54.0 -- 51.7 17.3
11/01/2019 16:00 224.77 0.00 54.0 -- 52.5 17.8
11/01/2019 15:00 224.75 0.00 54.0 -- 52.9 18.0
11/01/2019 14:00 224.82 0.00 53.9 -- 52.9 17.0
11/01/2019 13:00 224.78 0.00 53.9 -- 52.4 17.3
11/01/2019 12:00 224.82 0.00 53.9 -- 52.2 19.3
11/01/2019 11:00 224.75 0.00 53.9 -- 50.2 16.0
11/01/2019 10:00 224.75 0.00 53.8 -- 48.3 16.8
11/01/2019 09:00 224.79 0.00 53.9 -- 48.9 18.5
11/01/2019 08:00 224.85 0.02 53.9 -- 50.6 20.0
11/01/2019 07:00 224.78 0.02 53.9 -- 54.3 20.0
11/01/2019 06:00 224.84 0.13 53.9 -- 57.3 21.0
11/01/2019 05:00 224.79 0.01 54.0 -- 69.8 19.0
11/01/2019 04:00 224.78 0.00 54.0 -- 70.5 18.5
11/01/2019 03:00 224.80 0.00 54.1 -- 70.0 19.0
11/01/2019 02:00 224.77 0.00 54.2 -- 68.7 16.8
11/01/2019 01:00 224.78 0.00 54.2 -- 69.7 18.5
11/01/2019 00:00 224.79 0.00 54.3 0.18 68.4 17.5
10/31/2019 23:00 224.78 0.00 54.4 -- 68.6 17.0
10/31/2019 22:00 224.79 0.00 54.5 -- 68.0 17.8
10/31/2019 21:00 224.80 0.00 54.7 -- 67.7 18.0
10/31/2019 20:00 224.79 0.00 54.8 -- 67.4 18.0
10/31/2019 19:00 224.78 0.00 54.8 -- 67.9 17.5
10/31/2019 18:00 224.80 0.00 54.8 -- 67.4 19.0
10/31/2019 17:00 224.79 0.01 54.8 -- 67.0 18.5
10/31/2019 16:00 224.79 0.02 54.8 -- 66.1 18.0
10/31/2019 15:00 224.77 0.03 54.8 -- 64.2 17.5
10/31/2019 14:00 224.78 0.11 54.8 -- 62.5 17.5
10/31/2019 13:00 224.78 0.05 54.7 -- 61.0 16.5
10/31/2019 12:00 224.76 0.06 54.7 -- 59.9 16.5
10/31/2019 11:00 224.77 0.00 54.7 -- 59.3 16.3
10/31/2019 10:00 224.76 0.01 54.7 -- 58.4 16.0
10/31/2019 09:00 224.76 0.03 54.7 -- 55.7 16.0
10/31/2019 08:00 224.77 0.03 54.7 -- 54.9 16.3
10/31/2019 07:00 224.76 0.00 54.7 -- 55.2 15.5
10/31/2019 06:00 224.77 0.01 54.7 -- 55.1 16.3
10/31/2019 05:00 224.76 0.01 54.7 -- 55.1 15.8
10/31/2019 04:00 224.76 0.00 54.7 -- 55.2 16.0
10/31/2019 03:00 224.77 0.00 54.7 -- 55.4 16.0
10/31/2019 02:00 224.76 0.01 54.7 -- 55.5 16.0
10/31/2019 01:00 224.77 0.00 54.7 -- 55.5 16.3
10/31/2019 00:00 224.76 0.03 54.7 0.38 55.6 16.0
10/30/2019 23:00 224.77 0.03 54.7 -- 55.8 16.0
10/30/2019 22:00 224.77 0.00 54.7 -- 55.8 16.0
10/30/2019 21:00 224.76 0.00 54.7 -- 56.0 16.0
10/30/2019 20:00 224.77 0.00 54.7 -- 56.1 16.3
10/30/2019 19:00 224.76 0.00 54.7 -- 57.5 16.0
10/30/2019 18:00 224.76 0.00 54.7 -- 58.2 16.0
10/30/2019 17:00 224.77 0.00 54.7 -- 59.4 16.5
10/30/2019 16:00 224.77 0.00 54.7 -- 60.5 16.3
10/30/2019 15:00 224.77 0.00 54.7 -- 61.0 16.8
10/30/2019 14:00 224.77 0.00 54.7 -- 59.1 16.5
10/30/2019 13:00 224.77 0.00 54.7 -- 56.7 16.8
10/30/2019 12:00 224.78 0.00 54.7 -- 55.3 17.0
10/30/2019 11:00 224.77 0.00 54.7 -- 53.2 16.5
10/30/2019 10:00 224.77 0.00 54.7 -- 51.8 17.0
10/30/2019 09:00 224.78 0.00 54.7 -- 50.5 17.0
10/30/2019 08:00 224.78 0.00 54.7 -- 50.5 17.3
10/30/2019 07:00 224.78 0.00 54.7 -- 50.5 17.0
10/30/2019 06:00 224.78 0.00 54.7 -- 50.5 18.0
10/30/2019 05:00 224.78 0.01 54.7 -- 50.5 17.8
10/30/2019 04:00 224.78 0.00 54.7 -- 50.5 17.8
10/30/2019 03:00 224.78 0.00 54.7 -- 50.5 18.0
10/30/2019 02:00 224.79 0.00 54.7 -- 50.4 18.0
10/30/2019 01:00 224.78 0.00 54.7 -- 50.3 18.0
10/30/2019 00:00 224.78 0.00 54.7 0.07 50.2 18.0
10/29/2019 23:00 224.79 0.00 54.7 -- 50.1 18.3
10/29/2019 22:00 224.78 0.00 54.7 -- 50.0 18.0
10/29/2019 21:00 224.79 0.00 54.7 -- 50.1 18.3
10/29/2019 20:00 224.79 0.00 54.7 -- 50.2 18.0
10/29/2019 19:00 224.79 0.00 54.7 -- 50.5 19.0
10/29/2019 18:00 224.79 0.00 54.7 -- 50.8 19.0
10/29/2019 17:00 224.79 0.00 54.7 -- 50.9 19.0
10/29/2019 16:00 224.79 0.00 54.7 -- 50.8 19.0
10/29/2019 15:00 224.79 0.00 54.7 -- 50.5 19.0
10/29/2019 14:00 224.79 0.00 54.7 -- 51.5 19.3
10/29/2019 13:00 224.80 0.00 54.7 -- 50.7 19.3
10/29/2019 12:00 224.80 0.01 54.7 -- 49.7 19.0
10/29/2019 11:00 224.80 0.00 54.7 -- 49.1 19.0
10/29/2019 10:00 224.80 0.00 54.7 -- 49.2 19.8
10/29/2019 09:00 224.80 0.00 54.7 -- 47.7 19.3
10/29/2019 08:00 224.80 0.00 54.7 -- 47.2 19.8
10/29/2019 07:00 224.80 0.01 54.7 -- 47.2 20.0
10/29/2019 06:00 224.80 0.00 54.8 -- 47.2 20.0
10/29/2019 05:00 224.80 0.01 54.8 -- 47.2 20.0
10/29/2019 04:00 224.80 0.00 54.9 -- 46.7 20.0
10/29/2019 03:00 224.80 0.00 54.9 -- 47.1 20.0
10/29/2019 02:00 224.80 0.00 54.9 -- 47.3 20.0
10/29/2019 01:00 224.80 0.00 55.0 -- 47.0 20.0
10/29/2019 00:00 224.80 0.00 55.1 0.03 47.2 20.0
10/28/2019 23:00 224.80 0.01 55.1 -- 47.7 20.0
10/28/2019 22:00 224.81 0.00 55.1 -- 47.6 20.0
10/28/2019 21:00 224.80 0.00 55.1 -- 47.0 20.0
10/28/2019 20:00 224.80 0.00 55.1 -- 48.3 20.0
10/28/2019 19:00 224.80 0.00 55.1 -- 49.0 20.0
10/28/2019 18:00 224.81 0.00 55.1 -- 50.5 20.0
10/28/2019 17:00 224.80 0.00 55.1 -- 50.6 20.0
10/28/2019 16:00 224.80 0.00 55.1 -- 51.8 20.0
10/28/2019 15:00 224.81 0.00 55.1 -- 51.0 20.0
10/28/2019 14:00 224.80 0.00 55.1 -- 51.4 20.0
10/28/2019 13:00 224.81 0.00 55.1 -- 51.1 20.0
10/28/2019 12:00 224.81 0.00 55.1 -- 49.5 20.3
10/28/2019 11:00 224.80 0.00 55.1 -- 48.4 20.3
10/28/2019 10:00 224.81 0.00 55.1 -- 48.0 20.8
10/28/2019 09:00 224.81 0.00 55.1 -- 47.0 20.5
10/28/2019 08:00 224.80 0.00 55.1 -- 46.4 20.3
10/28/2019 07:00 224.81 0.00 55.1 -- 46.5 20.0
10/28/2019 06:00 224.81 0.00 55.1 -- 46.6 21.0
10/28/2019 05:00 224.80 0.00 55.2 -- 46.6 20.5
10/28/2019 04:00 224.81 0.00 55.2 -- 46.8 20.8
10/28/2019 03:00 224.80 0.00 55.2 -- 46.2 20.0
10/28/2019 02:00 224.81 0.00 55.3 -- 47.0 20.8
10/28/2019 01:00 224.80 0.00 55.3 -- 47.0 20.5
10/28/2019 00:00 224.81 0.00 55.3 0.01 47.4 20.8
10/27/2019 23:00 224.80 0.01 55.4 -- 47.4 20.5
10/27/2019 22:00 224.82 0.02 55.5 -- 47.7 20.0
10/27/2019 21:00 224.80 0.03 55.5 -- 47.5 19.3
10/27/2019 20:00 224.79 0.05 55.5 -- 46.6 18.5
10/27/2019 19:00 224.78 0.11 55.6 -- 45.9 18.3
10/27/2019 18:00 224.79 0.04 55.6 -- 45.9 17.5
10/27/2019 17:00 224.76 0.20 55.6 -- 45.4 16.3
10/27/2019 16:00 224.76 0.23 55.7 -- 45.4 15.0
10/27/2019 15:00 224.74 0.19 55.7 -- 45.5 12.8
10/27/2019 14:00 224.70 0.14 55.8 -- 46.0 10.8
10/27/2019 13:00 224.70 0.12 55.8 -- 45.0 10.0
10/27/2019 12:00 224.70 0.04 55.8 -- 43.9 10.3
10/27/2019 11:00 224.67 0.01 55.8 -- 43.1 9.0
10/27/2019 10:00 224.68 0.00 55.8 -- 42.1 9.5
10/27/2019 09:00 224.68 0.00 55.9 -- 40.8 9.5
10/27/2019 08:00 224.69 0.00 55.9 -- 40.3 9.3
10/27/2019 07:00 224.69 0.00 55.9 -- 40.0 9.5
10/27/2019 06:00 224.68 0.00 55.8 -- 39.1 9.0
10/27/2019 05:00 224.68 0.00 55.8 -- 38.1 9.8
10/27/2019 04:00 224.69 0.00 55.8 -- 35.5 9.8
10/27/2019 03:00 224.68 0.00 55.8 -- 36.5 9.8
10/27/2019 02:00 224.69 0.00 55.8 -- 36.0 10.0
10/27/2019 01:00 224.69 0.00 55.8 -- 35.8 10.0
10/27/2019 00:00 224.69 0.00 55.7 1.19 35.9 10.0
10/26/2019 23:00 224.69 0.00 55.7 -- 37.6 10.0
10/26/2019 22:00 224.69 0.00 55.7 -- 38.8 10.0
10/26/2019 21:00 224.69 0.00 55.8 -- 42.0 10.0
10/26/2019 20:00 224.69 0.00 55.7 -- 41.7 10.0
10/26/2019 19:00 224.70 0.00 55.9 -- 45.8 10.3
10/26/2019 18:00 224.69 0.00 55.9 -- 52.3 10.5
10/26/2019 17:00 224.70 0.00 55.7 -- 57.4 10.8
10/26/2019 16:00 224.71 0.00 55.8 -- 57.0 10.8
10/26/2019 15:00 224.69 0.00 55.6 -- 58.0 10.8
10/26/2019 14:00 224.71 0.00 55.7 -- 55.5 11.0
10/26/2019 13:00 224.70 0.00 55.8 -- 57.3 11.0
10/26/2019 12:00 224.70 0.00 55.6 -- 52.7 11.0
10/26/2019 11:00 224.70 0.00 55.8 -- 50.2 10.8
10/26/2019 10:00 224.71 0.00 55.6 -- 48.4 11.3
10/26/2019 09:00 224.71 0.00 55.6 -- 45.5 10.8
10/26/2019 08:00 224.71 0.00 55.6 -- 45.5 11.5
10/26/2019 07:00 224.71 0.00 55.6 -- 46.0 11.3
10/26/2019 06:00 224.70 0.00 55.6 -- 46.2 11.3
10/26/2019 05:00 224.71 0.00 55.6 -- 46.1 11.5
10/26/2019 04:00 224.70 0.01 55.6 -- 46.4 11.0
10/26/2019 03:00 224.71 0.01 55.6 -- 46.6 12.0
10/26/2019 02:00 224.71 0.03 55.6 -- 46.6 11.5
10/26/2019 01:00 224.71 0.01 55.6 -- 46.7 11.3
10/26/2019 00:00 224.71 0.03 55.6 0.06 47.1 11.5
10/25/2019 23:00 224.71 0.00 55.6 -- 47.4 11.0
10/25/2019 22:00 224.70 0.00 55.6 -- 47.9 11.0
10/25/2019 21:00 224.71 0.00 55.6 -- 48.3 11.3
10/25/2019 20:00 224.70 0.00 55.5 -- 49.1 11.0
10/25/2019 19:00 224.71 0.00 55.5 -- 51.2 11.0
10/25/2019 18:00 224.71 0.00 55.5 -- 53.9 11.0
10/25/2019 17:00 224.71 0.00 55.5 -- 56.7 11.8
10/25/2019 16:00 224.71 0.00 55.6 -- 56.8 11.8
10/25/2019 15:00 224.71 0.00 55.5 -- 56.1 11.3
10/25/2019 14:00 224.71 0.00 55.5 -- 55.6 12.0
10/25/2019 13:00 224.72 0.00 55.5 -- 53.6 11.8
10/25/2019 12:00 224.71 0.00 55.5 -- 52.1 12.0
10/25/2019 11:00 224.72 0.00 55.5 -- 48.3 12.0
10/25/2019 10:00 224.71 0.00 55.5 -- 46.7 12.0
10/25/2019 09:00 224.72 0.00 55.6 -- 45.9 12.0
10/25/2019 08:00 224.71 0.00 55.6 -- 45.4 12.0
10/25/2019 07:00 224.72 0.00 55.6 -- 45.8 12.0
10/25/2019 06:00 224.71 0.00 55.6 -- 46.1 12.3
10/25/2019 05:00 224.72 0.00 55.6 -- 45.9 12.3
10/25/2019 04:00 224.72 0.00 55.7 -- 46.9 12.5
10/25/2019 03:00 224.73 0.00 55.7 -- 44.7 12.8
10/25/2019 02:00 224.72 0.00 55.7 -- 43.8 12.5
10/25/2019 01:00 224.73 0.00 55.7 -- 44.1 13.0
10/25/2019 00:00 224.73 0.00 55.8 0.03 44.7 13.0
10/24/2019 23:00 224.72 0.00 55.8 -- 45.9 13.0
10/24/2019 22:00 224.73 0.00 55.8 -- 47.5 13.0
10/24/2019 21:00 224.72 0.00 55.8 -- 48.3 13.0
10/24/2019 20:00 224.73 0.00 55.9 -- 50.5 13.5
10/24/2019 19:00 224.73 0.00 55.9 -- 55.7 13.0
10/24/2019 18:00 224.73 0.00 55.9 -- 62.9 13.3
10/24/2019 17:00 224.73 0.00 55.9 -- 65.6 13.3
10/24/2019 16:00 224.73 0.00 55.9 -- 65.1 13.5
10/24/2019 15:00 224.74 0.00 55.9 -- 64.2 13.3
10/24/2019 14:00 224.73 0.00 56.0 -- 62.4 13.5
10/24/2019 13:00 224.74 0.00 55.9 -- 60.4 13.8
10/24/2019 12:00 224.73 0.00 55.9 -- 56.3 13.5
10/24/2019 11:00 224.74 0.00 56.0 -- 51.4 14.0
10/24/2019 10:00 224.74 0.00 56.0 -- 42.2 14.0
10/24/2019 09:00 224.74 0.00 56.0 -- 36.0 14.0
10/24/2019 08:00 224.74 0.00 56.1 -- 35.3 14.0
10/24/2019 07:00 224.74 0.00 56.2 -- 36.2 14.0
10/24/2019 06:00 224.75 0.00 56.2 -- 37.5 14.8
10/24/2019 05:00 224.74 0.00 56.2 -- 36.5 14.0
10/24/2019 04:00 224.75 0.00 56.3 -- 37.5 14.0
10/24/2019 03:00 224.74 0.00 56.2 -- 38.5 14.5
10/24/2019 02:00 224.74 0.00 56.3 -- 40.0 14.0
10/24/2019 01:00 224.74 0.00 56.2 -- 41.3 14.5
10/24/2019 00:00 224.75 0.00 56.1 0.00 41.9 14.5
10/23/2019 23:00 224.74 0.00 56.2 -- 43.5 14.3
10/23/2019 22:00 224.74 0.00 56.2 -- 44.7 14.8
10/23/2019 21:00 224.75 0.00 56.1 -- 46.5 14.3
10/23/2019 20:00 224.74 0.00 56.1 -- 49.8 14.8
10/23/2019 19:00 224.75 0.00 56.4 -- 53.3 15.3
10/23/2019 18:00 224.73 0.00 56.2 -- 61.5 14.3
10/23/2019 17:00 224.74 0.00 56.3 -- 63.8 15.3
10/23/2019 16:00 224.76 0.00 56.2 -- 64.7 15.5
10/23/2019 15:00 224.74 0.00 56.5 -- 62.5 15.0
10/23/2019 14:00 224.75 0.00 56.1 -- 62.9 15.3
10/23/2019 13:00 224.75 0.00 56.1 -- 60.8 15.0
10/23/2019 12:00 224.75 0.00 56.1 -- 56.5 15.0
10/23/2019 11:00 224.75 0.02 56.1 -- 53.8 14.0
10/23/2019 10:00 224.74 0.04 56.0 -- 52.1 14.5
10/23/2019 09:00 224.75 0.11 56.0 -- 53.0 14.5
10/23/2019 08:00 224.73 0.12 56.3 -- 52.4 12.3
10/23/2019 07:00 224.72 0.05 56.0 -- 52.6 12.0
10/23/2019 06:00 224.71 0.04 56.0 -- 52.4 11.3
10/23/2019 05:00 224.70 0.08 56.0 -- 52.3 11.0
10/23/2019 04:00 224.70 0.24 56.1 -- 52.4 10.3
10/23/2019 03:00 224.68 0.21 56.0 -- 52.4 7.8
10/23/2019 02:00 224.66 0.16 56.0 -- 52.3 7.3
10/23/2019 01:00 224.64 0.08 56.1 -- 52.4 6.3
10/23/2019 00:00 224.63 0.05 56.0 1.15 52.4 5.8
10/22/2019 23:00 224.64 0.02 56.0 -- 52.3 6.0
10/22/2019 22:00 224.63 0.00 56.1 -- 52.2 5.3
10/22/2019 21:00 224.62 0.00 56.0 -- 51.9 5.0
10/22/2019 20:00 224.63 0.00 56.1 -- 52.6 5.5
10/22/2019 19:00 224.62 0.00 56.0 -- 53.0 5.0
10/22/2019 18:00 224.63 0.00 56.0 -- 53.7 5.8
10/22/2019 17:00 224.63 0.00 56.1 -- 54.9 5.5
10/22/2019 16:00 224.63 0.00 56.0 -- 56.6 6.0
10/22/2019 15:00 224.63 0.00 55.9 -- 57.5 5.3
10/22/2019 14:00 224.63 0.00 56.0 -- 57.6 5.8
10/22/2019 13:00 224.63 0.00 56.0 -- 56.7 5.5
10/22/2019 12:00 224.61 0.00 56.1 -- 55.4 5.3
10/22/2019 11:00 224.63 0.00 56.1 -- 50.8 6.0
10/22/2019 10:00 224.63 0.00 56.0 -- 48.7 5.5
10/22/2019 09:00 224.63 0.00 55.9 -- 44.7 5.8
10/22/2019 08:00 224.64 0.00 55.8 -- 42.4 5.8
10/22/2019 07:00 224.63 0.00 55.7 -- 43.2 6.0
10/22/2019 06:00 224.64 0.00 55.8 -- 42.3 6.0
10/22/2019 05:00 224.63 0.00 55.8 -- 41.3 6.0
10/22/2019 04:00 224.63 0.00 55.9 -- 39.5 6.0
10/22/2019 03:00 224.64 0.00 55.8 -- 39.5 6.0
10/22/2019 02:00 224.63 0.00 55.9 -- 39.8 6.0
10/22/2019 01:00 224.63 0.00 56.0 -- 40.1 6.0
10/22/2019 00:00 224.64 0.00 56.0 0.07 41.2 6.0
10/21/2019 23:00 224.63 0.00 56.1 -- 42.4 6.0
10/21/2019 22:00 224.64 0.00 56.1 -- 44.2 6.0
10/21/2019 21:00 224.64 0.00 56.0 -- 46.1 6.0
10/21/2019 20:00 224.64 0.00 56.1 -- 49.6 6.0
10/21/2019 19:00 224.63 0.00 56.1 -- 54.4 6.0
10/21/2019 18:00 224.64 0.00 56.2 -- 59.7 6.0
10/21/2019 17:00 224.64 0.00 56.1 -- 67.6 6.0
10/21/2019 16:00 224.64 0.00 56.0 -- 63.7 6.0
10/21/2019 15:00 224.64 0.00 56.0 -- 61.5 6.0
10/21/2019 14:00 224.64 0.00 56.0 -- 59.8 6.0
10/21/2019 13:00 224.64 0.00 56.1 -- 57.6 6.3
10/21/2019 12:00 224.64 0.00 55.9 -- 55.0 6.0
10/21/2019 11:00 224.64 0.00 56.0 -- 52.8 6.0
10/21/2019 10:00 224.65 0.00 55.9 -- 47.4 7.0
10/21/2019 09:00 224.64 0.00 55.9 -- 42.0 6.0
10/21/2019 08:00 224.64 0.00 55.9 -- 42.1 6.8
10/21/2019 07:00 224.65 0.00 55.9 -- 44.3 6.3
10/21/2019 06:00 224.64 0.00 55.9 -- 46.5 6.3
10/21/2019 05:00 224.65 0.00 55.9 -- 49.2 7.0
10/21/2019 04:00 224.64 0.00 55.9 -- 49.4 6.3
10/21/2019 03:00 224.64 0.00 56.0 -- 48.7 6.8
10/21/2019 02:00 224.65 0.00 56.1 -- 49.0 7.0
10/21/2019 01:00 224.64 0.00 56.2 -- 49.1 7.0
10/21/2019 00:00 224.65 0.00 56.3 0.00 48.8 7.0
10/20/2019 23:00 224.64 0.00 56.3 -- 48.2 6.3
10/20/2019 22:00 224.64 0.00 56.3 -- 48.6 6.8
10/20/2019 21:00 224.66 0.00 56.3 -- 49.0 7.0
10/20/2019 20:00 224.64 0.00 56.4 -- 50.5 6.8
10/20/2019 19:00 224.66 0.00 56.3 -- 51.9 7.0
10/20/2019 18:00 224.65 0.00 56.3 -- 54.5 6.3
10/20/2019 17:00 224.65 0.00 56.3 -- 56.7 7.0
10/20/2019 16:00 224.65 0.00 56.3 -- 57.2 7.0
10/20/2019 15:00 224.65 0.00 56.4 -- 57.2 7.0
10/20/2019 14:00 224.65 0.00 56.3 -- 57.7 7.0
10/20/2019 13:00 224.65 0.00 56.3 -- 52.6 7.0
10/20/2019 12:00 224.66 0.00 56.3 -- 48.4 7.0
10/20/2019 11:00 224.65 0.00 56.3 -- 46.7 7.0
10/20/2019 10:00 224.66 0.00 56.3 -- 41.0 7.0
10/20/2019 09:00 224.65 0.00 56.3 -- 35.8 7.0
10/20/2019 08:00 224.66 0.00 56.4 -- 33.0 7.0
10/20/2019 07:00 224.65 0.00 56.4 -- 31.9 7.0
10/20/2019 06:00 224.66 0.00 56.5 -- 32.0 7.0
10/20/2019 05:00 224.65 0.00 56.5 -- 33.0 7.3
10/20/2019 04:00 224.66 0.00 56.5 -- 33.0 7.3
10/20/2019 03:00 224.66 0.00 56.5 -- 33.2 7.0
10/20/2019 02:00 224.66 0.00 56.5 -- 34.1 7.0
10/20/2019 01:00 224.66 0.00 56.4 -- 34.9 7.3
10/20/2019 00:00 224.66 0.00 56.4 0.00 35.6 7.8
10/19/2019 23:00 224.66 0.00 56.4 -- 36.9 7.3
10/19/2019 22:00 224.66 0.00 56.4 -- 38.5 7.8
10/19/2019 21:00 224.66 0.00 56.4 -- 40.3 7.3
10/19/2019 20:00 224.65 0.00 56.4 -- 43.1 7.0
10/19/2019 19:00 224.66 0.00 56.4 -- 48.4 7.8
10/19/2019 18:00 224.66 0.00 56.4 -- 57.1 7.5
10/19/2019 17:00 224.67 0.00 56.4 -- 57.3 7.8
10/19/2019 16:00 224.65 0.00 56.4 -- 59.0 7.5
10/19/2019 15:00 224.66 0.00 56.4 -- 57.5 7.8
10/19/2019 14:00 224.66 0.00 56.4 -- 55.8 8.0
10/19/2019 13:00 224.67 0.00 56.3 -- 54.7 8.0
10/19/2019 12:00 224.67 0.00 56.3 -- 50.8 8.3
10/19/2019 11:00 224.66 0.00 56.4 -- 48.2 7.3
10/19/2019 10:00 224.67 0.00 56.4 -- 45.3 8.3
10/19/2019 09:00 224.66 0.00 56.5 -- 37.5 8.0
10/19/2019 08:00 224.67 0.00 56.5 -- 40.3 8.3
10/19/2019 07:00 224.66 0.00 56.6 -- 41.3 8.0
10/19/2019 06:00 224.66 0.00 56.7 -- 38.9 7.8
10/19/2019 05:00 224.67 0.00 56.7 -- 38.1 8.3
10/19/2019 04:00 224.67 0.00 56.8 -- 40.7 8.0
10/19/2019 03:00 224.67 0.00 56.9 -- 40.5 8.0
10/19/2019 02:00 224.66 0.00 56.9 -- 43.0 8.0
10/19/2019 01:00 224.67 0.00 56.9 -- 44.6 7.8
10/19/2019 00:00 224.66 0.00 57.0 0.00 45.7 9.0
10/18/2019 23:00 224.66 0.00 57.0 -- 46.4 7.8
10/18/2019 22:00 224.68 0.00 57.1 -- 47.4 8.8
10/18/2019 21:00 224.67 0.00 57.0 -- 47.1 8.3
10/18/2019 20:00 224.66 0.00 56.9 -- 48.5 8.3
10/18/2019 19:00 224.69 0.00 57.3 -- 49.8 8.3
10/18/2019 18:00 224.68 0.00 57.3 -- 52.0 8.0
10/18/2019 17:00 224.67 0.00 57.1 -- 54.4 9.5
10/18/2019 16:00 224.70 0.00 57.0 -- 55.4 9.8
10/18/2019 15:00 224.69 0.00 56.9 -- 54.7 9.0
10/18/2019 14:00 224.68 0.00 56.9 -- 53.2 9.3
10/18/2019 13:00 224.70 0.00 56.8 -- 52.5 9.0
10/18/2019 12:00 224.65 0.00 56.7 -- 53.3 7.8
10/18/2019 11:00 224.70 0.00 56.8 -- 51.3 8.8
10/18/2019 10:00 224.66 0.00 56.8 -- 49.9 9.3
10/18/2019 09:00 224.68 0.00 56.8 -- 47.3 9.0
10/18/2019 08:00 224.68 0.00 56.8 -- 45.0 9.0
10/18/2019 07:00 224.68 0.00 56.8 -- 46.2 9.0
10/18/2019 06:00 224.69 0.00 56.7 -- 45.5 9.3
10/18/2019 05:00 224.67 0.00 56.4 -- 45.7 8.3
10/18/2019 04:00 224.68 0.00 56.6 -- 44.9 9.3
10/18/2019 03:00 224.67 0.00 56.6 -- 45.1 8.8
10/18/2019 02:00 224.69 0.00 56.5 -- 45.5 9.5
10/18/2019 01:00 224.69 0.00 56.6 -- 44.0 9.5
10/18/2019 00:00 224.68 0.00 56.7 0.00 44.8 9.3
10/17/2019 23:00 224.67 0.00 56.4 -- 46.2 8.8
10/17/2019 22:00 224.68 0.00 56.6 -- 46.1 9.3
10/17/2019 21:00 224.65 0.01 56.5 -- 46.4 9.0
10/17/2019 20:00 224.71 0.00 56.2 -- 45.9 9.3
10/17/2019 19:00 224.69 0.00 56.3 -- 45.9 9.5
10/17/2019 18:00 224.69 0.00 56.4 -- 45.0 8.3
10/17/2019 17:00 224.68 0.00 56.5 -- 45.5 9.0
10/17/2019 16:00 224.68 0.01 56.7 -- 45.4 8.3
10/17/2019 15:00 224.66 0.02 56.4 -- 45.5 8.5
10/17/2019 14:00 224.67 0.01 56.2 -- 46.1 9.0
10/17/2019 13:00 224.66 0.01 58.4 -- 46.6 8.0
10/17/2019 12:00 224.65 0.00 58.4 -- 47.4 7.8
10/17/2019 11:00 224.66 0.01 58.4 -- 47.4 8.0
10/17/2019 10:00 224.68 0.00 58.4 -- 49.2 8.5
10/17/2019 09:00 224.66 0.03 58.4 -- 53.4 7.8
10/17/2019 08:00 224.67 0.04 58.4 -- 57.3 8.5
10/17/2019 07:00 224.67 0.09 58.4 -- 58.0 6.5
10/17/2019 06:00 224.64 0.16 58.4 -- 55.8 6.0
10/17/2019 05:00 224.64 0.35 58.4 -- 54.1 4.3
10/17/2019 04:00 224.60 0.46 58.5 -- 53.6 2.5
10/17/2019 03:00 224.56 0.32 58.6 -- 54.1 0.8
10/17/2019 02:00 224.50 0.16 58.6 -- 54.0 0.3
10/17/2019 01:00 224.51 0.10 58.7 -- 53.7 0.0
10/17/2019 00:00 224.48 0.06 58.7 1.78 53.2 0.0
10/16/2019 23:00 224.50 0.00 58.7 -- 53.3 0.0
10/16/2019 22:00 224.48 0.00 58.6 -- 53.8 0.0
10/16/2019 21:00 224.49 0.00 58.6 -- 53.3 0.0
10/16/2019 20:00 224.49 0.00 58.6 -- 53.5 0.0
10/16/2019 19:00 224.48 0.00 58.6 -- 53.5 0.0
10/16/2019 18:00 224.49 0.00 58.6 -- 54.1 0.0
10/16/2019 17:00 224.50 0.00 58.6 -- 55.2 0.0
10/16/2019 16:00 224.49 0.00 58.6 -- 56.8 0.0
10/16/2019 15:00 224.48 0.00 58.6 -- 57.3 0.0
10/16/2019 14:00 224.49 0.00 58.6 -- 58.4 0.0
10/16/2019 13:00 224.50 0.00 58.6 -- 57.1 0.0
10/16/2019 12:00 224.49 0.00 58.6 -- 54.4 0.0
10/16/2019 11:00 224.49 0.00 58.6 -- 49.9 0.0
10/16/2019 10:00 224.48 0.00 58.6 -- 39.4 0.0
10/16/2019 09:00 224.49 0.00 58.7 -- 33.2 0.0
10/16/2019 08:00 224.49 0.00 58.8 -- 31.8 0.0
10/16/2019 07:00 224.49 0.00 58.8 -- 32.2 0.0
10/16/2019 06:00 224.49 0.00 58.8 -- 32.3 0.0
10/16/2019 05:00 224.50 0.00 58.8 -- 33.0 0.0
10/16/2019 04:00 224.49 0.00 58.7 -- 33.7 0.0
10/16/2019 03:00 224.49 0.00 58.7 -- 34.9 0.0
10/16/2019 02:00 224.49 0.00 58.7 -- 35.6 0.0
10/16/2019 01:00 224.49 0.00 58.8 -- 36.4 0.0
10/16/2019 00:00 224.49 0.00 58.8 0.06 37.3 0.0
10/15/2019 23:00 224.49 0.00 58.7 -- 38.4 0.0
10/15/2019 22:00 224.50 0.00 58.8 -- 39.8 0.0
10/15/2019 21:00 224.49 0.00 58.7 -- 41.7 0.0
10/15/2019 20:00 224.49 0.00 58.8 -- 44.6 0.0
10/15/2019 19:00 224.49 0.00 58.8 -- 49.6 0.0
10/15/2019 18:00 224.49 0.00 58.8 -- 58.0 0.0
10/15/2019 17:00 224.49 0.00 58.7 -- 61.1 0.0
10/15/2019 16:00 224.50 0.00 58.7 -- 59.6 0.0
10/15/2019 15:00 224.49 0.00 58.7 -- 60.5 0.0
10/15/2019 14:00 224.50 0.00 58.8 -- 57.6 0.0
10/15/2019 13:00 224.49 0.00 58.7 -- 56.6 0.0
10/15/2019 12:00 224.49 0.00 58.7 -- 55.7 0.0
10/15/2019 11:00 224.49 0.00 58.7 -- 52.6 0.0
10/15/2019 10:00 224.50 0.00 58.7 -- 49.0 0.0
10/15/2019 09:00 224.49 0.00 58.7 -- 43.7 0.0
10/15/2019 08:00 224.50 0.00 58.7 -- 42.7 0.0
10/15/2019 07:00 224.50 0.00 58.7 -- 46.4 0.0
10/15/2019 06:00 224.49 0.00 58.7 -- 47.1 0.0
10/15/2019 05:00 224.50 0.00 58.7 -- 45.8 0.0
10/15/2019 04:00 224.50 0.00 58.7 -- 49.9 0.0
10/15/2019 03:00 224.49 0.00 58.7 -- 53.4 0.0
10/15/2019 02:00 224.50 0.00 58.7 -- 55.3 0.0
10/15/2019 01:00 224.49 0.00 58.7 -- 54.1 0.0
10/15/2019 00:00 224.50 0.00 58.7 0.00 54.6 0.0
10/14/2019 23:00 224.49 0.00 58.7 -- 54.9 0.0
10/14/2019 22:00 224.50 0.00 58.7 -- 54.9 0.0
10/14/2019 21:00 224.50 0.00 58.7 -- 55.3 0.0
10/14/2019 20:00 224.50 0.00 58.7 -- 55.4 0.0
10/14/2019 19:00 224.50 0.00 58.7 -- 56.5 0.0
10/14/2019 18:00 224.50 0.00 58.7 -- 61.2 0.0
10/14/2019 17:00 224.50 0.00 58.7 -- 64.7 0.0
10/14/2019 16:00 224.50 0.00 58.7 -- 65.4 0.0
10/14/2019 15:00 224.49 0.00 58.7 -- 64.8 0.0
10/14/2019 14:00 224.50 0.00 58.7 -- 64.3 0.0
10/14/2019 13:00 224.50 0.00 58.7 -- 57.9 0.0
10/14/2019 12:00 224.50 0.00 58.7 -- 51.2 0.0
10/14/2019 11:00 224.50 0.00 58.7 -- 46.2 0.0
10/14/2019 10:00 224.50 0.00 58.6 -- 44.4 0.0
10/14/2019 09:00 224.50 0.00 58.7 -- 42.3 0.0
10/14/2019 08:00 224.50 0.00 58.7 -- 42.9 0.0
10/14/2019 07:00 224.50 0.00 58.8 -- 43.2 0.0
10/14/2019 06:00 224.50 0.00 58.8 -- 44.5 0.0
10/14/2019 05:00 224.50 0.00 58.8 -- 45.8 0.0
10/14/2019 04:00 224.50 0.00 58.8 -- 44.1 0.0
10/14/2019 03:00 224.49 0.00 58.8 -- 43.1 0.0
10/14/2019 02:00 224.50 0.00 58.8 -- 43.3 0.0
10/14/2019 01:00 224.50 0.00 58.8 -- 45.1 0.0
10/14/2019 00:00 224.49 0.00 58.8 0.00 47.4 0.0
10/13/2019 23:00 224.50 0.00 58.8 -- 49.2 0.0
10/13/2019 22:00 224.50 0.00 58.8 -- 50.3 0.0
10/13/2019 21:00 224.50 0.00 58.8 -- 51.7 0.0
10/13/2019 20:00 224.50 0.00 58.8 -- 54.5 0.0
10/13/2019 19:00 224.50 0.00 58.8 -- 57.9 0.0
10/13/2019 18:00 224.50 0.00 58.8 -- 61.0 0.0
10/13/2019 17:00 224.50 0.00 58.8 -- 66.2 0.0
10/13/2019 16:00 224.49 0.00 58.8 -- 67.6 0.0
10/13/2019 15:00 224.50 0.00 58.8 -- 64.3 0.0
10/13/2019 14:00 224.50 0.00 58.8 -- 62.2 0.0
10/13/2019 13:00 224.50 0.00 58.8 -- 62.6 0.0
10/13/2019 12:00 224.49 0.00 58.7 -- 61.2 0.0
10/13/2019 11:00 224.50 0.00 58.7 -- 58.9 0.0
10/13/2019 10:00 224.49 0.00 58.7 -- 50.6 0.0
10/13/2019 09:00 224.49 0.00 58.8 -- 45.1 0.0
10/13/2019 08:00 224.50 0.00 58.8 -- 43.5 0.0
10/13/2019 07:00 224.49 0.00 58.8 -- 43.6 0.0
10/13/2019 06:00 224.49 0.00 58.9 -- 44.4 0.0
10/13/2019 05:00 224.49 0.00 58.9 -- 45.7 0.0
10/13/2019 04:00 224.50 0.00 58.9 -- 45.4 0.0
10/13/2019 03:00 224.49 0.00 59.0 -- 45.3 0.0
10/13/2019 02:00 224.50 0.00 59.0 -- 46.6 0.0
10/13/2019 01:00 224.49 0.00 59.1 -- 46.6 0.0
10/13/2019 00:00 224.50 0.00 59.1 0.00 48.0 0.0
10/12/2019 23:00 224.50 0.00 59.1 -- 49.3 0.0
10/12/2019 22:00 224.49 0.00 59.1 -- 51.5 0.0
10/12/2019 21:00 224.49 0.00 59.0 -- 54.0 0.0
10/12/2019 20:00 224.50 0.00 59.0 -- 54.1 0.0
10/12/2019 19:00 224.49 0.00 59.0 -- 54.9 0.0
10/12/2019 18:00 224.49 0.00 59.0 -- 55.8 0.0
10/12/2019 17:00 224.49 0.00 59.1 -- 56.1 0.0
10/12/2019 16:00 224.50 0.00 59.1 -- 56.5 0.0
10/12/2019 15:00 224.49 0.00 59.1 -- 55.0 0.0
10/12/2019 14:00 224.50 0.00 59.1 -- 53.7 0.0
10/12/2019 13:00 224.50 0.00 59.1 -- 52.9 0.0
10/12/2019 12:00 224.49 0.00 59.1 -- 51.8 0.0
10/12/2019 11:00 224.49 0.00 59.0 -- 51.2 0.0
10/12/2019 10:00 224.49 0.00 59.0 -- 50.4 0.0
10/12/2019 09:00 224.50 0.00 59.0 -- 50.4 0.0
10/12/2019 08:00 224.49 0.00 59.0 -- 50.0 0.0
10/12/2019 07:00 224.50 0.00 59.2 -- 50.3 0.0
10/12/2019 06:00 224.50 0.00 59.2 -- 51.6 0.0
10/12/2019 05:00 224.49 0.00 59.2 -- 51.6 0.0
10/12/2019 04:00 224.50 0.00 59.3 -- 51.0 0.0
10/12/2019 03:00 224.50 0.00 59.4 -- 50.7 --
10/12/2019 02:00 224.50 0.00 59.4 -- 50.7 0.0
10/12/2019 01:00 224.48 0.00 59.5 -- 50.7 0.0
10/12/2019 00:00 224.48 0.00 59.5 0.00 52.6 0.0
10/11/2019 23:00 224.50 0.00 59.5 -- 53.2 0.0
10/11/2019 22:00 224.50 0.00 59.6 -- 53.6 0.0
10/11/2019 21:00 224.49 0.00 59.6 -- 54.3 0.0
10/11/2019 20:00 224.49 0.00 59.6 -- 54.2 0.0
10/11/2019 19:00 224.50 0.00 59.6 -- 56.0 0.0
10/11/2019 18:00 224.50 0.00 59.6 -- 57.0 0.0
10/11/2019 17:00 224.49 0.00 59.7 -- 58.3 0.0
10/11/2019 16:00 224.51 0.00 59.7 -- 58.1 0.0
10/11/2019 15:00 224.51 0.00 59.7 -- 57.7 0.0
10/11/2019 14:00 224.50 0.00 59.7 -- 58.7 0.0
10/11/2019 13:00 224.47 0.00 59.7 -- 57.4 0.0
10/11/2019 12:00 224.51 0.00 59.6 -- 55.9 0.0
10/11/2019 11:00 224.50 0.00 59.6 -- 52.7 0.0
10/11/2019 10:00 224.49 0.00 59.5 -- 51.5 0.0
10/11/2019 09:00 224.50 0.00 59.6 -- 49.9 0.0
10/11/2019 08:00 224.49 0.00 59.7 -- 49.9 0.0
10/11/2019 07:00 224.51 0.00 59.8 -- 50.4 0.0
10/11/2019 06:00 224.51 0.00 60.0 -- 50.1 0.0
10/11/2019 05:00 224.51 0.00 60.1 -- 49.8 0.0
10/11/2019 04:00 224.50 0.00 60.2 -- 50.1 0.0
10/11/2019 03:00 224.50 0.00 60.3 -- 51.1 0.0
10/11/2019 02:00 224.51 0.00 60.3 -- 51.7 0.0
10/11/2019 01:00 224.47 0.00 60.4 -- 51.9 0.0
10/11/2019 00:00 224.50 0.00 60.5 0.00 51.8 0.0
10/10/2019 23:00 224.49 0.00 60.6 -- 52.4 0.0
10/10/2019 22:00 224.50 0.00 60.6 -- 51.4 0.0
10/10/2019 21:00 224.50 0.00 60.6 -- 52.6 0.0
10/10/2019 20:00 224.50 0.00 60.7 -- 51.2 0.0
10/10/2019 19:00 224.50 0.00 60.8 -- 50.9 0.0
10/10/2019 18:00 224.50 0.00 60.8 -- 51.9 0.0
10/10/2019 17:00 224.51 0.00 60.9 -- 53.9 0.0
10/10/2019 16:00 224.49 0.00 60.9 -- 54.8 0.0
10/10/2019 15:00 224.50 0.00 60.9 -- 55.4 0.0
10/10/2019 14:00 224.52 0.00 60.9 -- 54.7 0.0
10/10/2019 13:00 224.49 0.00 60.9 -- 53.5 0.0
10/10/2019 12:00 224.51 0.00 61.0 -- 53.2 0.0
10/10/2019 11:00 224.51 0.00 61.1 -- 52.8 0.0
10/10/2019 10:00 224.51 0.00 61.2 -- 51.5 0.0
10/10/2019 09:00 224.52 0.00 61.2 -- 49.8 0.0
10/10/2019 08:00 224.51 0.00 61.3 -- 49.1 0.0
10/10/2019 07:00 224.50 0.00 61.4 -- 48.1 0.0
10/10/2019 06:00 224.50 0.00 61.5 -- 48.3 0.0
10/10/2019 05:00 224.51 0.00 61.6 -- 48.7 0.0
10/10/2019 04:00 224.50 0.00 61.6 -- 49.7 0.0
10/10/2019 03:00 224.51 0.00 61.7 -- 50.5 0.0
10/10/2019 02:00 224.49 0.00 61.8 -- 50.8 0.0
10/10/2019 01:00 224.52 0.00 61.9 -- 51.2 0.0
10/10/2019 00:00 224.52 0.00 61.9 0.00 50.5 0.0
10/09/2019 23:00 224.51 0.00 61.9 -- 50.8 0.0
10/09/2019 22:00 224.51 0.00 62.0 -- 50.5 0.0
10/09/2019 21:00 224.51 0.00 62.0 -- 50.6 0.0
10/09/2019 20:00 224.50 0.00 62.0 -- 51.2 0.0
10/09/2019 19:00 224.51 0.00 62.0 -- 51.9 0.0
10/09/2019 18:00 224.51 0.00 62.1 -- 53.2 0.0
10/09/2019 17:00 224.51 0.00 62.2 -- 53.4 0.0
10/09/2019 16:00 224.50 0.00 62.2 -- 54.2 0.0
10/09/2019 15:00 224.51 0.00 62.2 -- 55.2 0.0
10/09/2019 14:00 224.50 0.00 62.3 -- 55.9 0.0
10/09/2019 13:00 224.51 0.00 62.3 -- 56.1 0.0
10/09/2019 12:00 224.50 0.00 62.2 -- 55.1 0.0
10/09/2019 11:00 224.50 0.00 62.2 -- 52.4 0.0
10/09/2019 10:00 224.51 0.00 62.1 -- 50.6 0.0
10/09/2019 09:00 224.51 0.00 62.2 -- 49.9 0.0
10/09/2019 08:00 224.51 0.00 61.8 -- 49.0 0.0
10/09/2019 07:00 224.50 0.00 61.6 -- 48.8 0.0
10/09/2019 06:00 224.52 0.00 61.6 -- 48.8 0.0
10/09/2019 05:00 224.50 0.00 61.8 -- 49.5 0.0
10/09/2019 04:00 224.51 0.00 61.9 -- 49.3 0.0
10/09/2019 03:00 224.51 0.00 61.9 -- 47.8 0.0
10/09/2019 02:00 224.50 0.00 61.6 -- 46.1 0.0
10/09/2019 01:00 224.51 0.00 61.6 -- 46.0 0.0
10/09/2019 00:00 224.50 0.00 61.8 0.00 47.6 0.0
10/08/2019 23:00 224.52 0.00 61.8 -- 49.5 0.0
10/08/2019 22:00 224.51 0.00 61.6 -- 51.4 0.0
10/08/2019 21:00 224.50 0.00 61.9 -- 52.2 0.0
10/08/2019 20:00 224.50 0.00 61.7 -- 53.9 0.0
10/08/2019 19:00 224.51 0.00 61.5 -- 56.7 0.0
10/08/2019 18:00 224.50 0.00 61.9 -- 64.5 0.0
10/08/2019 17:00 224.51 0.00 62.1 -- 66.9 0.0
10/08/2019 16:00 224.50 0.00 61.9 -- 66.8 0.0
10/08/2019 15:00 224.51 0.00 61.5 -- 64.8 0.0
10/08/2019 14:00 224.50 0.00 61.3 -- 61.3 0.0
10/08/2019 13:00 224.50 0.00 61.9 -- 61.0 0.0
10/08/2019 12:00 224.51 0.00 61.6 -- 60.7 0.0
10/08/2019 11:00 224.50 0.00 61.6 -- 56.8 0.0
10/08/2019 10:00 224.50 0.00 61.5 -- 55.5 0.0
10/08/2019 09:00 224.50 0.01 61.6 -- 54.3 0.0
10/08/2019 08:00 224.50 0.00 61.6 -- 53.4 0.0
10/08/2019 07:00 224.50 0.00 61.5 -- 53.5 0.0
10/08/2019 06:00 224.50 0.01 61.5 -- 53.8 0.0
10/08/2019 05:00 224.50 0.01 61.6 -- 54.2 0.0
10/08/2019 04:00 224.51 0.02 61.7 -- 55.1 0.0
10/08/2019 03:00 224.49 0.03 61.5 -- 56.2 0.0
10/08/2019 02:00 224.50 0.01 61.5 -- 56.2 0.0
10/08/2019 01:00 224.49 0.09 61.6 -- 56.6 0.0
10/08/2019 00:00 224.49 0.04 61.6 0.18 56.9 0.0
10/07/2019 23:00 224.49 0.07 61.5 -- 56.8 0.0
10/07/2019 22:00 224.48 0.07 61.6 -- 57.1 0.0
10/07/2019 21:00 224.48 0.13 61.5 -- 58.1 0.0
10/07/2019 20:00 224.46 0.09 61.6 -- 59.1 0.0
10/07/2019 19:00 224.44 0.07 61.5 -- 60.9 0.0
10/07/2019 18:00 224.45 0.00 61.7 -- 64.5 0.0
10/07/2019 17:00 224.44 0.00 61.6 -- 66.8 0.0
10/07/2019 16:00 224.44 0.00 61.6 -- 70.8 0.0
10/07/2019 15:00 224.45 0.00 61.7 -- 73.0 0.0
10/07/2019 14:00 224.46 0.00 61.8 -- 72.0 0.0
10/07/2019 13:00 224.44 0.00 61.9 -- 70.6 0.0
10/07/2019 12:00 224.43 0.00 61.9 -- 69.8 0.0
10/07/2019 11:00 224.44 0.00 61.9 -- 66.8 0.0
10/07/2019 10:00 224.44 0.00 62.0 -- 64.2 0.0
10/07/2019 09:00 224.45 0.00 62.0 -- 62.8 0.0
10/07/2019 08:00 224.44 0.00 62.0 -- 63.4 0.0
10/07/2019 07:00 224.44 0.00 61.9 -- 64.3 0.0
10/07/2019 06:00 224.44 0.00 62.0 -- 64.8 0.0
10/07/2019 05:00 224.44 0.00 62.0 -- 63.1 0.0
10/07/2019 04:00 224.45 0.00 62.0 -- 61.1 0.0
10/07/2019 03:00 224.45 0.00 62.0 -- 60.9 0.0
10/07/2019 02:00 224.43 0.00 62.0 -- 59.3 0.0
10/07/2019 01:00 224.44 0.00 62.0 -- 60.6 0.0
10/07/2019 00:00 224.43 0.00 62.0 0.47 60.8 0.0
10/06/2019 23:00 224.44 0.00 62.0 -- 59.6 0.0
10/06/2019 22:00 224.44 0.00 62.0 -- 57.8 0.0
10/06/2019 21:00 224.44 0.00 62.0 -- 57.2 0.0
10/06/2019 20:00 224.44 0.00 62.1 -- 56.9 0.0
10/06/2019 19:00 224.44 0.00 62.1 -- 57.6 0.0
10/06/2019 18:00 224.44 0.00 62.0 -- 58.7 0.0
10/06/2019 17:00 224.44 0.00 62.1 -- 59.1 0.0
10/06/2019 16:00 224.45 0.00 62.1 -- 58.7 0.0
10/06/2019 15:00 224.44 0.00 62.1 -- 59.5 0.0
10/06/2019 14:00 224.44 0.00 62.1 -- 58.1 0.0
10/06/2019 13:00 224.44 0.00 62.1 -- 55.6 0.0
10/06/2019 12:00 224.45 0.00 62.1 -- 52.9 0.0
10/06/2019 11:00 224.44 0.00 62.1 -- 49.0 0.0
10/06/2019 10:00 224.44 0.00 62.2 -- 37.6 0.0
10/06/2019 09:00 224.44 0.00 62.2 -- 33.0 0.0
10/06/2019 08:00 224.44 0.00 62.4 -- 31.0 0.0
10/06/2019 07:00 224.44 0.00 62.5 -- 30.8 0.0
10/06/2019 06:00 224.44 0.00 62.6 -- 31.3 0.0
10/06/2019 05:00 224.44 0.00 62.6 -- 32.1 0.0
10/06/2019 04:00 224.45 0.00 62.8 -- 32.0 0.0
10/06/2019 03:00 224.44 0.00 62.9 -- 32.7 0.0
10/06/2019 02:00 224.44 0.00 62.9 -- 32.9 0.0
10/06/2019 01:00 224.44 0.00 62.9 -- 33.8 0.0
10/06/2019 00:00 224.44 0.00 62.9 0.00 34.8 0.0
10/05/2019 23:00 224.43 0.00 62.9 -- 36.1 0.0
10/05/2019 22:00 224.44 0.00 62.9 -- 37.9 0.0
10/05/2019 21:00 224.44 0.00 62.9 -- 39.8 0.0
10/05/2019 20:00 224.45 0.00 62.9 -- 43.0 0.0
10/05/2019 19:00 224.45 0.00 63.0 -- 48.4 0.0
10/05/2019 18:00 224.45 0.00 62.9 -- 59.0 0.0
10/05/2019 17:00 224.45 0.00 63.0 -- 62.9 0.0
10/05/2019 16:00 224.45 0.00 62.9 -- 60.7 0.0
10/05/2019 15:00 224.45 0.00 62.9 -- 59.0 0.0
10/05/2019 14:00 224.44 0.00 63.0 -- 57.7 0.0
10/05/2019 13:00 224.45 0.00 63.0 -- 53.1 0.0
10/05/2019 12:00 224.45 0.00 62.9 -- 51.9 0.0
10/05/2019 11:00 224.45 0.00 63.0 -- 50.2 0.0
10/05/2019 10:00 224.45 0.00 63.0 -- 43.8 0.0
10/05/2019 09:00 224.45 0.00 63.1 -- 34.8 0.0
10/05/2019 08:00 224.44 0.00 63.2 -- 33.8 0.0
10/05/2019 07:00 224.45 0.00 63.4 -- 33.7 0.0
10/05/2019 06:00 224.45 0.00 63.4 -- 36.9 0.0
10/05/2019 05:00 224.45 0.00 63.5 -- 33.2 0.0
10/05/2019 04:00 224.45 0.00 63.6 -- 36.4 0.0
10/05/2019 03:00 224.46 0.00 63.7 -- 36.5 0.0
10/05/2019 02:00 224.45 0.00 63.8 -- 35.1 0.0
10/05/2019 01:00 224.45 0.00 63.9 -- 34.9 0.0
10/05/2019 00:00 224.46 0.00 64.1 0.00 36.7 0.0
10/04/2019 23:00 224.46 0.00 64.2 -- 42.4 0.0
10/04/2019 22:00 224.46 0.00 64.3 -- 39.8 0.0
10/04/2019 21:00 224.46 0.00 64.3 -- 46.0 0.0
10/04/2019 20:00 224.47 0.00 64.1 -- 47.0 0.0
10/04/2019 19:00 224.45 0.00 64.1 -- 49.5 0.0
10/04/2019 18:00 224.49 0.00 64.6 -- 53.9 0.0
10/04/2019 17:00 224.43 0.00 64.5 -- 55.8 0.0
10/04/2019 16:00 224.48 0.00 64.6 -- 56.1 0.0
10/04/2019 15:00 224.48 0.00 64.5 -- 56.8 0.0
10/04/2019 14:00 224.46 0.00 64.5 -- 53.7 0.0
10/04/2019 13:00 224.47 0.00 64.5 -- 54.8 0.0
10/04/2019 12:00 224.47 0.00 64.5 -- 53.0 0.0
10/04/2019 11:00 224.47 0.00 64.5 -- 53.7 0.0
10/04/2019 10:00 224.47 0.00 64.4 -- 50.7 0.0
10/04/2019 09:00 224.46 0.01 64.3 -- 46.9 0.0
10/04/2019 08:00 224.47 0.00 64.3 -- 44.8 0.0
10/04/2019 07:00 224.46 0.01 64.3 -- 46.4 0.0
10/04/2019 06:00 224.47 0.00 64.4 -- 46.6 0.0
10/04/2019 05:00 224.46 0.01 64.2 -- 46.2 0.0
10/04/2019 04:00 224.46 0.01 64.1 -- 45.8 0.0
10/04/2019 03:00 224.46 0.02 64.1 -- 45.9 0.0
10/04/2019 02:00 224.46 0.06 63.8 -- 45.8 0.0
10/04/2019 01:00 224.45 0.01 63.8 -- 45.9 0.0
10/04/2019 00:00 224.45 0.00 63.7 0.13 46.1 0.0
10/03/2019 23:00 224.45 0.00 63.7 -- 46.2 0.0
10/03/2019 22:00 224.45 0.00 63.8 -- 46.1 0.0
10/03/2019 21:00 224.45 0.00 63.7 -- 46.8 0.0
10/03/2019 20:00 224.45 0.00 63.4 -- 46.5 0.0
10/03/2019 19:00 224.45 0.00 63.6 -- 47.8 0.0
10/03/2019 18:00 224.45 0.00 63.9 -- 49.3 0.0
10/03/2019 17:00 224.46 0.00 63.8 -- 49.6 0.0
10/03/2019 16:00 224.45 0.00 63.2 -- 50.2 0.0
10/03/2019 15:00 224.45 0.00 63.7 -- 51.0 0.0
10/03/2019 14:00 224.45 0.00 63.6 -- 51.1 0.0
10/03/2019 13:00 224.45 0.00 63.8 -- 50.6 0.0
10/03/2019 12:00 224.46 0.00 63.7 -- 49.4 0.0
10/03/2019 11:00 224.45 0.00 63.6 -- 47.3 0.0
10/03/2019 10:00 224.46 0.00 63.4 -- 44.6 0.0
10/03/2019 09:00 224.45 0.00 63.6 -- 43.0 0.0
10/03/2019 08:00 224.46 0.00 63.5 -- 39.2 0.0
10/03/2019 07:00 224.46 0.00 63.5 -- 41.1 0.0
10/03/2019 06:00 224.46 0.00 63.5 -- 42.8 0.0
10/03/2019 05:00 224.46 0.00 63.4 -- 43.2 0.0
10/03/2019 04:00 224.46 0.00 63.6 -- 45.4 0.0
10/03/2019 03:00 224.46 0.00 63.6 -- 46.6 0.0
10/03/2019 02:00 224.46 0.00 63.5 -- 47.6 0.0
10/03/2019 01:00 224.46 0.00 63.6 -- 48.6 0.0
10/03/2019 00:00 224.45 0.00 63.6 0.00 49.9 0.0
10/02/2019 23:00 224.46 0.01 63.5 -- 51.8 0.0
10/02/2019 22:00 224.46 0.00 63.4 -- 51.9 0.0
10/02/2019 21:00 224.46 0.00 63.7 -- 54.0 0.0
10/02/2019 20:00 224.45 0.01 63.5 -- 56.0 0.0
10/02/2019 19:00 224.46 0.01 63.4 -- 57.1 0.0
10/02/2019 18:00 224.46 0.00 63.6 -- 58.8 0.0
10/02/2019 17:00 224.45 0.02 63.5 -- 59.9 0.0
10/02/2019 16:00 224.46 0.02 63.4 -- 61.7 0.0
10/02/2019 15:00 224.45 0.00 63.6 -- 65.0 0.0
10/02/2019 14:00 224.46 0.00 63.6 -- 66.7 3.0
10/02/2019 13:00 224.45 0.00 63.5 -- 67.4 4.0
10/02/2019 12:00 224.46 0.00 63.5 -- 66.7 4.0
10/02/2019 11:00 224.45 0.00 63.6 -- 66.3 4.0
10/02/2019 10:00 224.45 0.00 63.6 -- 67.5 4.0
10/02/2019 09:00 224.45 0.00 63.5 -- 66.7 4.0
10/02/2019 08:00 224.45 0.00 63.6 -- 64.5 4.0
10/02/2019 07:00 224.45 0.00 63.6 -- 65.4 4.0
10/02/2019 06:00 224.46 0.00 63.5 -- 65.4 4.0
10/02/2019 05:00 224.45 0.00 63.5 -- 65.0 4.0
10/02/2019 04:00 224.45 0.00 63.7 -- 62.4 4.0
10/02/2019 03:00 224.46 0.01 63.6 -- 60.3 4.0
10/02/2019 02:00 224.45 0.00 63.3 -- 60.3 4.0
10/02/2019 01:00 224.46 0.00 63.7 -- 60.5 4.0
10/02/2019 00:00 224.45 0.00 63.7 0.08 60.8 4.0
10/01/2019 23:00 224.45 0.00 63.5 -- 61.2 4.0
10/01/2019 22:00 224.45 0.00 63.4 -- 61.5 4.0
10/01/2019 21:00 224.45 0.00 63.6 -- 60.7 4.0
10/01/2019 20:00 224.46 0.00 63.6 -- 61.6 4.0
10/01/2019 19:00 224.46 0.00 63.6 -- 63.7 4.0
10/01/2019 18:00 224.46 0.00 63.6 -- 63.6 4.0
10/01/2019 17:00 224.46 0.00 63.3 -- 62.8 4.0
10/01/2019 16:00 224.45 0.00 63.5 -- 62.5 4.0
10/01/2019 15:00 224.46 0.00 63.8 -- 62.3 4.0
10/01/2019 14:00 224.46 0.00 63.6 -- 59.4 4.0
10/01/2019 13:00 224.46 0.00 63.5 -- 57.5 4.0
10/01/2019 12:00 224.46 0.00 63.6 -- 56.4 4.0
10/01/2019 11:00 224.45 0.00 63.6 -- 54.6 4.0
10/01/2019 10:00 224.46 0.00 63.5 -- 54.0 4.0
10/01/2019 09:00 224.46 0.01 63.6 -- 53.2 4.0
10/01/2019 08:00 224.46 0.02 63.5 -- 52.4 4.0
10/01/2019 07:00 224.46 0.11 63.5 -- 51.9 4.0
10/01/2019 06:00 224.45 0.01 63.6 -- 51.2 4.0
10/01/2019 05:00 224.45 0.00 63.6 -- 50.8 4.0
10/01/2019 04:00 224.45 0.00 63.4 -- 50.8 4.0
10/01/2019 03:00 224.45 0.00 63.7 -- 50.8 4.0
10/01/2019 02:00 224.45 0.02 63.5 -- 50.7 4.0
10/01/2019 01:00 224.45 0.00 63.6 -- 51.7 4.0
10/01/2019 00:00 224.45 0.00 63.1 0.17 51.4 4.0
09/30/2019 23:00 224.44 0.00 63.7 -- 51.9 4.0
09/30/2019 22:00 224.45 0.00 63.8 -- 52.1 4.0
09/30/2019 21:00 224.45 0.00 63.6 -- 52.3 4.0
09/30/2019 20:00 224.45 0.00 63.2 -- 53.2 4.0
09/30/2019 19:00 224.45 0.00 63.7 -- 55.1 4.0
09/30/2019 18:00 224.45 0.00 63.8 -- 58.8 4.0
09/30/2019 17:00 224.45 0.00 63.7 -- 58.8 4.0
09/30/2019 16:00 224.45 0.00 63.9 -- 58.9 4.0
09/30/2019 15:00 224.46 0.00 63.9 -- 58.6 4.0
09/30/2019 14:00 224.46 0.00 63.6 -- 55.2 4.0
09/30/2019 13:00 224.46 0.00 64.1 -- 54.7 4.0
09/30/2019 12:00 224.46 0.00 63.8 -- 53.9 4.0
09/30/2019 11:00 224.46 0.00 63.6 -- 51.0 0.8
09/30/2019 10:00 224.46 0.00 63.9 -- 47.0 0.0
09/30/2019 09:00 224.45 0.00 63.9 -- 44.8 0.0
09/30/2019 08:00 224.46 0.00 63.8 -- 39.3 0.0
09/30/2019 07:00 224.46 0.00 63.9 -- 39.0 0.0
09/30/2019 06:00 224.46 0.00 63.9 -- 39.7 0.0
09/30/2019 05:00 224.46 0.00 63.8 -- 39.4 0.0
09/30/2019 04:00 224.46 0.00 63.6 -- 40.3 0.0
09/30/2019 03:00 224.46 0.00 63.8 -- 41.4 0.0
09/30/2019 02:00 224.47 0.00 63.9 -- 42.5 0.0
09/30/2019 01:00 224.46 0.00 64.4 -- 43.8 0.0
09/30/2019 00:00 224.46 0.00 63.7 0.00 44.5 0.0
09/29/2019 23:00 224.46 0.00 63.6 -- 46.2 0.0
09/29/2019 22:00 224.46 0.00 63.5 -- 47.7 0.0
09/29/2019 21:00 224.46 0.00 63.5 -- 50.1 0.0
09/29/2019 20:00 224.46 0.00 63.8 -- 54.1 0.0
09/29/2019 19:00 224.46 0.00 63.7 -- 61.9 0.0
09/29/2019 18:00 224.46 0.00 63.5 -- 66.7 0.0
09/29/2019 17:00 224.46 0.00 63.4 -- 68.8 0.0
09/29/2019 16:00 224.47 0.00 63.6 -- 70.2 0.0
09/29/2019 15:00 224.47 0.00 63.8 -- 71.4 0.0
09/29/2019 14:00 224.47 0.00 63.8 -- 69.0 0.0
09/29/2019 13:00 224.47 0.00 63.8 -- 69.5 0.0
09/29/2019 12:00 224.47 0.00 63.6 -- 67.7 0.0
09/29/2019 11:00 224.47 0.00 63.7 -- 66.1 0.0
09/29/2019 10:00 224.46 0.00 63.7 -- 64.4 0.0
09/29/2019 09:00 224.47 0.00 63.7 -- 62.7 0.0
09/29/2019 08:00 224.47 0.00 63.6 -- 60.7 0.0
09/29/2019 07:00 224.47 0.00 63.6 -- 60.7 0.0
09/29/2019 06:00 224.47 0.00 63.8 -- 60.2 0.0
09/29/2019 05:00 224.47 0.00 63.6 -- 65.3 0.0
09/29/2019 04:00 224.47 0.00 63.5 -- 60.2 0.0
09/29/2019 03:00 224.47 0.00 63.7 -- 62.1 0.0
09/29/2019 02:00 224.46 0.00 63.8 -- 63.6 0.0
09/29/2019 01:00 224.47 0.00 63.6 -- 63.5 0.0
09/29/2019 00:00 224.47 0.00 63.8 0.00 64.2 0.0
09/28/2019 23:00 224.48 0.00 63.4 -- 65.1 0.0
09/28/2019 22:00 224.48 0.00 63.8 -- 65.2 0.0
09/28/2019 21:00 224.47 0.00 63.7 -- 65.0 0.0
09/28/2019 20:00 224.48 0.00 63.8 -- 67.5 0.0
09/28/2019 19:00 224.47 0.00 63.5 -- 72.5 0.0
09/28/2019 18:00 224.48 0.00 64.2 -- 76.8 0.0
09/28/2019 17:00 224.47 0.00 63.8 -- 78.6 0.0
09/28/2019 16:00 224.49 0.00 63.9 -- 79.1 0.0
09/28/2019 15:00 224.47 0.00 64.3 -- 78.2 0.0
09/28/2019 14:00 224.47 0.00 63.7 -- 75.4 0.0
09/28/2019 13:00 224.47 0.00 63.8 -- 72.5 0.0
09/28/2019 12:00 224.48 0.00 63.7 -- 68.8 0.0
09/28/2019 11:00 224.46 0.00 63.7 -- 64.2 0.0
09/28/2019 10:00 224.47 0.00 63.8 -- 54.8 0.0
09/28/2019 09:00 224.47 0.00 63.7 -- 47.2 0.0
09/28/2019 08:00 224.48 0.00 63.9 -- 45.7 0.0
09/28/2019 07:00 224.47 0.00 63.9 -- 45.9 0.0
09/28/2019 06:00 224.48 0.00 63.8 -- 46.2 0.0
09/28/2019 05:00 224.47 0.00 63.8 -- 46.0 0.0
09/28/2019 04:00 224.48 0.00 63.9 -- 46.9 0.0
09/28/2019 03:00 224.48 0.00 63.6 -- 47.7 0.0
09/28/2019 02:00 224.47 0.00 63.8 -- 48.5 0.0
09/28/2019 01:00 224.48 0.00 63.9 -- 49.5 0.0
09/28/2019 00:00 224.48 0.00 63.4 0.00 50.8 0.0
09/27/2019 23:00 224.48 0.00 63.8 -- 51.9 0.0
09/27/2019 22:00 224.48 0.00 64.1 -- 53.4 0.0
09/27/2019 21:00 224.48 0.00 63.3 -- 55.0 0.0
09/27/2019 20:00 224.48 0.00 63.0 -- 57.7 0.0
09/27/2019 19:00 224.48 0.00 63.9 -- 63.5 0.0
09/27/2019 18:00 224.48 0.00 64.0 -- 71.7 0.0
09/27/2019 17:00 224.47 0.00 63.5 -- 73.2 0.0
09/27/2019 16:00 224.48 0.00 63.6 -- 71.4 0.0
09/27/2019 15:00 224.48 0.00 63.3 -- 72.5 0.0
09/27/2019 14:00 224.47 0.00 63.8 -- 70.3 0.0
09/27/2019 13:00 224.48 0.01 63.7 -- 68.6 0.0
09/27/2019 12:00 224.48 0.00 63.3 -- 64.6 0.0
09/27/2019 11:00 224.48 0.00 63.5 -- 60.1 0.0
09/27/2019 10:00 224.48 0.00 63.6 -- 54.3 0.0
09/27/2019 09:00 224.48 0.00 63.6 -- 53.0 0.0
09/27/2019 08:00 224.48 0.00 63.6 -- 49.3 0.0
09/27/2019 07:00 224.48 0.00 63.5 -- 47.6 0.0
09/27/2019 06:00 224.47 0.00 63.5 -- 50.1 0.0
09/27/2019 05:00 224.49 0.00 63.6 -- 51.0 0.0
09/27/2019 04:00 224.47 0.00 63.7 -- 51.1 0.0
09/27/2019 03:00 224.48 0.00 63.6 -- 49.9 0.0
09/27/2019 02:00 224.49 0.01 63.6 -- 50.3 0.0
09/27/2019 01:00 224.48 0.00 63.4 -- 51.3 0.0
09/27/2019 00:00 224.48 0.00 63.8 0.02 53.1 0.0
09/26/2019 23:00 224.49 0.00 63.9 -- 54.5 0.0
09/26/2019 22:00 224.48 0.00 63.2 -- 56.4 0.0
09/26/2019 21:00 224.48 0.01 62.4 -- 57.5 0.0
09/26/2019 20:00 224.48 0.05 63.5 -- 57.4 0.0
09/26/2019 19:00 224.47 0.06 63.6 -- 58.6 0.0
09/26/2019 18:00 224.48 0.09 63.8 -- 63.0 0.0
09/26/2019 17:00 224.47 0.00 63.6 -- 67.0 0.0
09/26/2019 16:00 224.46 0.00 63.5 -- 74.0 0.0
09/26/2019 15:00 224.46 0.00 64.3 -- 75.6 0.0
09/26/2019 14:00 224.46 0.00 63.7 -- 77.8 0.0
09/26/2019 13:00 224.46 0.00 63.8 -- 74.3 0.0
09/26/2019 12:00 224.46 0.00 63.8 -- 70.2 0.0
09/26/2019 11:00 224.47 0.00 63.9 -- 64.6 0.0
09/26/2019 10:00 224.47 0.00 63.8 -- 54.9 0.0
09/26/2019 09:00 224.46 0.00 63.9 -- 48.9 0.0
09/26/2019 08:00 224.47 0.00 63.8 -- 47.2 0.0
09/26/2019 07:00 224.47 0.00 63.9 -- 46.6 0.0
09/26/2019 06:00 224.47 0.00 63.8 -- 46.9 0.0
09/26/2019 05:00 224.47 0.00 63.6 -- 47.2 0.0
09/26/2019 04:00 224.46 0.00 63.9 -- 47.5 0.0
09/26/2019 03:00 224.47 0.00 63.9 -- 48.1 0.0
09/26/2019 02:00 224.47 0.00 63.9 -- 48.5 0.0
09/26/2019 01:00 224.47 0.00 63.9 -- 49.0 0.0
09/26/2019 00:00 224.47 0.00 63.7 0.21 49.6 0.0
09/25/2019 23:00 224.48 0.00 63.4 -- 50.3 0.0
09/25/2019 22:00 224.47 0.00 64.0 -- 52.0 0.0
09/25/2019 21:00 224.47 0.00 63.7 -- 53.7 0.0
09/25/2019 20:00 224.47 0.00 64.2 -- 56.7 0.0
09/25/2019 19:00 224.48 0.00 63.5 -- 62.7 0.0
09/25/2019 18:00 224.47 0.00 63.4 -- 70.1 0.0
09/25/2019 17:00 224.47 0.00 63.4 -- 69.3 0.0
09/25/2019 16:00 224.47 0.00 64.0 -- 67.0 0.0
09/25/2019 15:00 224.47 0.00 63.5 -- 66.3 0.0
09/25/2019 14:00 224.48 0.00 63.8 -- 66.7 0.0
09/25/2019 13:00 224.48 0.00 63.4 -- 67.8 0.0
09/25/2019 12:00 224.47 0.00 63.5 -- 65.4 0.0
09/25/2019 11:00 224.48 0.00 63.8 -- 63.0 0.0
09/25/2019 10:00 224.47 0.00 63.6 -- 58.6 0.0
09/25/2019 09:00 224.48 0.00 64.1 -- 53.3 0.0
09/25/2019 08:00 224.48 0.00 63.6 -- 51.1 0.0
09/25/2019 07:00 224.48 0.00 63.3 -- 51.9 0.0
09/25/2019 06:00 224.48 0.00 63.6 -- 52.3 0.0
09/25/2019 05:00 224.48 0.00 63.9 -- 51.7 0.0
09/25/2019 04:00 224.48 0.00 63.6 -- 51.8 0.0
09/25/2019 03:00 224.47 0.00 63.6 -- 53.1 0.0
09/25/2019 02:00 224.48 0.00 63.3 -- 53.3 0.0
09/25/2019 01:00 224.48 0.00 64.2 -- 55.4 0.0
09/25/2019 00:00 224.48 0.00 63.5 0.00 56.4 0.0
09/24/2019 23:00 224.48 0.00 64.2 -- 58.1 0.0
09/24/2019 22:00 224.48 0.00 63.6 -- 59.9 0.0
09/24/2019 21:00 224.48 0.00 63.4 -- 61.8 0.0
09/24/2019 20:00 224.48 0.00 64.4 -- 62.4 0.0
09/24/2019 19:00 224.48 0.00 64.0 -- 65.8 0.0
09/24/2019 18:00 224.48 0.00 63.0 -- 66.6 0.0
09/24/2019 17:00 224.49 0.01 63.5 -- 67.7 0.0
09/24/2019 16:00 224.49 0.00 62.7 -- 74.9 0.0
09/24/2019 15:00 224.48 0.00 63.4 -- 75.7 0.0
09/24/2019 14:00 224.48 0.00 62.9 -- 75.9 0.0
09/24/2019 13:00 224.48 0.00 64.1 -- 74.6 0.0
09/24/2019 12:00 224.48 0.00 63.4 -- 71.7 0.0
09/24/2019 11:00 224.48 0.00 63.9 -- 70.9 0.0
09/24/2019 10:00 224.49 0.00 63.2 -- 67.4 0.0
09/24/2019 09:00 224.48 0.00 64.6 -- 63.0 0.0
09/24/2019 08:00 224.48 0.00 62.7 -- 60.0 0.0
09/24/2019 07:00 224.49 0.00 63.8 -- 59.7 0.0
09/24/2019 06:00 224.48 0.00 63.9 -- 61.7 0.0
09/24/2019 05:00 224.49 0.00 63.6 -- 64.3 0.0
09/24/2019 04:00 224.49 0.00 63.4 -- 65.3 0.0
09/24/2019 03:00 224.49 0.00 64.1 -- 66.2 0.0
09/24/2019 02:00 224.49 0.00 63.5 -- 67.1 0.0
09/24/2019 01:00 224.49 0.00 63.6 -- 67.7 0.0
09/24/2019 00:00 224.49 0.00 64.0 0.01 76.2 0.0
09/23/2019 23:00 224.47 0.00 63.8 -- 75.7 0.0
09/23/2019 22:00 224.49 0.00 65.0 -- 72.7 0.0
09/23/2019 21:00 224.49 0.00 63.6 -- 71.2 0.0
09/23/2019 20:00 224.49 0.00 64.8 -- 72.5 0.0
09/23/2019 19:00 224.49 0.00 64.7 -- 75.3 0.0
09/23/2019 18:00 224.50 0.00 64.6 -- 81.3 0.0
09/23/2019 17:00 224.49 0.00 64.4 -- 85.2 0.0
09/23/2019 16:00 224.50 0.00 64.7 -- 86.1 0.0
09/23/2019 15:00 224.48 0.00 64.8 -- 85.7 0.0
09/23/2019 14:00 224.48 0.00 64.4 -- 84.7 0.0
09/23/2019 13:00 224.50 0.00 65.0 -- 83.8 0.0
09/23/2019 12:00 224.49 0.00 64.3 -- 79.7 0.0
09/23/2019 11:00 224.48 0.00 64.1 -- 73.4 0.0
09/23/2019 10:00 224.49 0.00 64.7 -- 70.6 0.0
09/23/2019 09:00 224.49 0.00 64.6 -- 63.0 0.0
09/23/2019 08:00 224.49 0.00 64.9 -- 60.7 0.0
09/23/2019 07:00 224.49 0.00 64.5 -- 60.9 0.0
09/23/2019 06:00 224.49 0.00 64.2 -- 60.8 0.0
09/23/2019 05:00 224.49 0.00 64.9 -- 61.8 0.0
09/23/2019 04:00 224.49 0.00 64.2 -- 62.1 0.0
09/23/2019 03:00 224.49 0.00 64.4 -- 62.0 0.0
09/23/2019 02:00 224.50 0.00 64.7 -- 62.0 0.0
09/23/2019 01:00 224.49 0.00 64.6 -- 62.6 0.0
09/23/2019 00:00 224.49 0.00 64.3 0.00 62.7 0.0
09/22/2019 23:00 224.49 0.00 64.2 -- 63.2 0.0
09/22/2019 22:00 224.49 0.00 64.0 -- 64.5 0.0
09/22/2019 21:00 224.49 0.00 65.1 -- 66.1 0.0
09/22/2019 20:00 224.49 0.00 64.4 -- 68.8 0.0
09/22/2019 19:00 224.49 0.00 64.5 -- 74.7 0.0
09/22/2019 18:00 224.49 0.00 64.4 -- 82.6 0.0
09/22/2019 17:00 224.50 0.00 64.8 -- 85.5 0.0
09/22/2019 16:00 224.49 0.00 64.5 -- 86.1 0.0
09/22/2019 15:00 224.49 0.00 64.4 -- 85.0 0.0
09/22/2019 14:00 224.49 0.00 64.8 -- 85.0 0.0
09/22/2019 13:00 224.49 0.00 64.6 -- 81.2 0.0
09/22/2019 12:00 224.49 0.00 64.7 -- 77.1 0.0
09/22/2019 11:00 224.49 0.00 64.6 -- 71.7 0.0
09/22/2019 10:00 224.49 0.00 64.4 -- 60.8 0.0
09/22/2019 09:00 224.49 0.00 64.2 -- 53.5 0.0
09/22/2019 08:00 224.49 0.00 65.0 -- 52.2 0.0
09/22/2019 07:00 224.50 0.00 64.6 -- 52.6 0.0
09/22/2019 06:00 224.49 0.00 64.6 -- 53.6 0.0
09/22/2019 05:00 224.49 0.00 64.9 -- 54.4 0.0
09/22/2019 04:00 224.49 0.00 64.6 -- 55.2 0.0
09/22/2019 03:00 224.50 0.00 64.7 -- 56.1 0.0
09/22/2019 02:00 224.49 0.00 65.0 -- 56.9 0.0
09/22/2019 01:00 224.50 0.00 65.2 -- 58.0 0.0
09/22/2019 00:00 224.50 0.00 65.3 0.00 59.1 0.0
09/21/2019 23:00 224.50 0.00 64.9 -- 60.4 0.0
09/21/2019 22:00 224.50 0.00 64.6 -- 62.0 0.0
09/21/2019 21:00 224.50 0.00 65.2 -- 64.8 0.0
09/21/2019 20:00 224.50 0.00 65.0 -- 67.5 0.0
09/21/2019 19:00 224.49 0.00 64.9 -- 73.9 0.0
09/21/2019 18:00 224.50 0.00 65.4 -- 81.7 0.0
09/21/2019 17:00 224.50 0.00 65.2 -- 83.3 0.0
09/21/2019 16:00 224.50 0.00 64.5 -- 83.3 0.0
09/21/2019 15:00 224.50 0.00 65.0 -- 84.6 0.0
09/21/2019 14:00 224.50 0.00 65.6 -- 81.2 0.0
09/21/2019 13:00 224.49 0.00 65.2 -- 80.7 0.0
09/21/2019 12:00 224.49 0.00 64.8 -- 80.3 0.0
09/21/2019 11:00 224.50 0.00 65.2 -- 80.2 0.0
09/21/2019 10:00 224.50 0.00 65.0 -- 66.2 --
09/21/2019 09:00 224.50 0.00 65.0 -- 65.3 --
09/21/2019 08:00 224.50 0.00 65.0 -- 64.5 --
09/21/2019 07:00 224.50 0.00 65.0 -- 63.6 --
09/21/2019 06:00 224.50 0.00 65.0 -- 62.8 --
09/21/2019 05:00 224.50 0.00 65.0 -- 61.9 --
09/21/2019 04:00 224.50 0.00 65.0 -- 61.1 --
09/21/2019 03:00 224.50 0.00 65.1 -- 60.2 --
09/21/2019 02:00 224.50 0.00 65.1 -- 59.4 --
09/21/2019 01:00 224.50 0.00 65.1 -- 58.6 --
09/21/2019 00:00 224.50 0.00 65.1 0.00 57.7 --
09/20/2019 23:00 224.50 0.00 65.1 -- 56.9 --
09/20/2019 22:00 224.50 0.00 65.1 -- 56.0 --
09/20/2019 21:00 224.50 0.00 65.1 -- 55.2 --
09/20/2019 20:00 224.50 0.00 65.1 -- 54.3 --
09/20/2019 19:00 224.50 0.00 65.1 -- 53.5 --
09/20/2019 18:00 224.50 0.00 65.1 -- 52.6 --
09/20/2019 17:00 224.50 0.00 65.1 -- 51.8 --
09/20/2019 16:00 224.50 0.00 65.2 -- 51.0 --
09/20/2019 15:00 224.50 0.00 65.2 -- 50.1 --
09/20/2019 14:00 224.50 0.00 65.2 -- 49.3 --
09/20/2019 13:00 224.50 0.00 65.2 -- 48.4 --
09/20/2019 12:00 224.50 0.00 65.2 -- 47.6 --
09/20/2019 11:00 224.50 0.00 65.2 -- 46.7 --
09/20/2019 10:00 224.50 0.00 65.2 -- 45.9 0.0
09/20/2019 09:00 224.50 0.00 65.0 -- 43.7 0.0
09/20/2019 08:00 224.50 0.00 65.3 -- 41.4 0.0
09/20/2019 07:00 224.50 0.00 65.0 -- 42.1 0.0
09/20/2019 06:00 224.50 0.00 65.1 -- 45.3 0.0
09/20/2019 05:00 224.50 0.00 64.9 -- 42.6 0.0
09/20/2019 04:00 224.50 0.00 64.5 -- 40.6 0.0
09/20/2019 03:00 224.50 0.00 65.0 -- 41.0 0.0
09/20/2019 02:00 224.50 0.00 64.9 -- 41.6 0.0
09/20/2019 01:00 224.50 0.00 65.1 -- 42.9 0.0
09/20/2019 00:00 224.50 0.00 65.2 0.00 44.3 0.0
09/19/2019 23:00 224.50 0.00 65.1 -- 45.9 0.0
09/19/2019 22:00 224.50 0.00 64.8 -- 47.7 0.0
09/19/2019 21:00 224.50 0.00 64.2 -- 50.5 0.0
09/19/2019 20:00 224.50 0.00 64.8 -- 54.5 0.0
09/19/2019 19:00 224.50 0.00 64.7 -- 61.1 0.0
09/19/2019 18:00 224.50 0.00 64.8 -- 70.8 0.0
09/19/2019 17:00 224.50 0.00 64.8 -- 72.7 0.0
09/19/2019 16:00 224.50 0.00 64.0 -- 68.6 0.0
09/19/2019 15:00 224.50 0.00 64.9 -- 67.9 0.0
09/19/2019 14:00 224.50 0.00 65.3 -- 66.6 0.0
09/19/2019 13:00 224.50 0.00 64.2 -- 65.3 0.0
09/19/2019 12:00 224.50 0.00 64.9 -- 62.4 0.0
09/19/2019 11:00 -- -- -- -- 61.4 0.0
09/19/2019 10:00 -- -- -- -- 47.9 0.0
09/19/2019 09:00 -- -- -- -- 39.5 0.0
09/19/2019 08:00 -- -- -- -- 36.2 0.0
09/19/2019 07:00 -- -- -- -- 36.1 0.0
09/19/2019 06:00 -- -- -- -- 36.3 0.0
09/19/2019 05:00 -- -- -- -- 36.8 0.0
09/19/2019 04:00 -- -- -- -- 37.4 0.0
09/19/2019 03:00 -- -- -- -- 38.6 0.0
09/19/2019 02:00 -- -- -- -- 39.3 0.0
09/19/2019 01:00 -- -- -- -- 40.2 0.0
09/19/2019 00:00 -- -- -- 0.00 41.4 0.0